| time (UTC) | temp F | wind direction | speed MPH | gust MPH | rain 1hr in | rain 24hr in | rain mn in | humidity % | barometer mb |
| 20260906234436 | 57 | 308 | 0.0 | 0.0 | 0.00 | 0.00 | 0.00 | 84 | 1016.8 |
| 20260906234322 | 58 | 308 | 0.0 | 0.0 | 0.00 | 0.00 | 0.00 | 84 | 1016.8 |
| 20260906234244 | 58 | 308 | 0.0 | 0.0 | 0.00 | 0.00 | 0.00 | 84 | 1016.7 |
| 20260906234146 | 58 | 308 | 0.0 | 0.0 | 0.00 | 0.00 | 0.00 | 84 | 1016.7 |
| 20260906234031 | 58 | 308 | 0.0 | 0.0 | 0.00 | 0.00 | 0.00 | 84 | 1016.7 |
| 20260906233957 | 58 | 308 | 0.0 | 0.0 | 0.00 | 0.00 | 0.00 | 84 | 1016.7 |
| 20260906233921 | 58 | 308 | 0.0 | 0.0 | 0.00 | 0.00 | 0.00 | 84 | 1016.7 |
| 20260906233803 | 58 | 308 | 0.0 | 0.0 | 0.00 | 0.00 | 0.00 | 83 | 1016.7 |
| 20260906233726 | 58 | 308 | 0.0 | 0.0 | 0.00 | 0.00 | 0.00 | 83 | 1016.7 |
| 20260906233558 | 58 | 308 | 0.0 | 0.0 | 0.00 | 0.00 | 0.00 | 83 | 1016.7 |
| 20260906233452 | 58 | 308 | 0.0 | 0.0 | 0.00 | 0.00 | 0.00 | 82 | 1016.7 |
| 20260906233302 | 58 | 308 | 0.0 | 0.0 | 0.00 | 0.00 | 0.00 | 82 | 1016.7 |
| 20260906233137 | 59 | 308 | 0.0 | 0.0 | 0.00 | 0.00 | 0.00 | 82 | 1016.7 |
| 20260906233040 | 59 | 308 | 0.0 | 0.0 | 0.00 | 0.00 | 0.00 | 81 | 1016.7 |
| 20260906232955 | 59 | 308 | 0.0 | 0.0 | 0.00 | 0.00 | 0.00 | 81 | 1016.7 |
| 20260906232827 | 59 | 308 | 0.0 | 0.0 | 0.00 | 0.00 | 0.00 | 81 | 1016.7 |
| 20260906232732 | 59 | 308 | 0.0 | 0.0 | 0.00 | 0.00 | 0.00 | 81 | 1016.7 |
| 20260906232604 | 59 | 308 | 0.0 | 0.0 | 0.00 | 0.00 | 0.00 | 81 | 1016.7 |
| 20260906232440 | 59 | 308 | 0.0 | 0.0 | 0.00 | 0.00 | 0.00 | 81 | 1016.7 |
| 20260906232324 | 59 | 308 | 0.0 | 0.0 | 0.00 | 0.00 | 0.00 | 80 | 1016.7 |
| 20260906232246 | 60 | 308 | 0.0 | 0.0 | 0.00 | 0.00 | 0.00 | 80 | 1016.7 |
| 20260906232209 | 60 | 308 | 0.0 | 0.0 | 0.00 | 0.00 | 0.00 | 80 | 1016.7 |
| 20260906232115 | 60 | 308 | 0.0 | 0.0 | 0.00 | 0.00 | 0.00 | 80 | 1016.7 |
| 20260906232037 | 60 | 308 | 0.0 | 0.0 | 0.00 | 0.00 | 0.00 | 80 | 1016.7 |
| 20260906231909 | 60 | 308 | 0.0 | 0.0 | 0.00 | 0.00 | 0.00 | 79 | 1016.6 |
| 20260906231826 | 60 | 308 | 0.0 | 0.0 | 0.00 | 0.00 | 0.00 | 79 | 1016.6 |
| 20260906231622 | 60 | 308 | 0.0 | 0.0 | 0.00 | 0.00 | 0.00 | 79 | 1016.6 |
| 20260906231549 | 61 | 308 | 0.0 | 0.0 | 0.00 | 0.00 | 0.00 | 79 | 1016.6 |
| 20260906231511 | 61 | 308 | 0.0 | 0.0 | 0.00 | 0.00 | 0.00 | 79 | 1016.6 |
| 20260906231434 | 61 | 308 | 0.0 | 0.0 | 0.00 | 0.00 | 0.00 | 78 | 1016.6 |
| 20260906231329 | 61 | 308 | 0.0 | 0.0 | 0.00 | 0.00 | 0.00 | 78 | 1016.6 |
| 20260906231140 | 61 | 308 | 0.0 | 0.0 | 0.00 | 0.00 | 0.00 | 78 | 1016.6 |
| 20260906231037 | 61 | 308 | 0.0 | 0.0 | 0.00 | 0.00 | 0.00 | 78 | 1016.6 |
| 20260906230923 | 61 | 308 | 0.0 | 0.0 | 0.00 | 0.00 | 0.00 | 77 | 1016.6 |
| 20260906230829 | 61 | 308 | 0.0 | 0.0 | 0.00 | 0.00 | 0.00 | 77 | 1016.6 |
| 20260906230754 | 61 | 308 | 0.0 | 0.0 | 0.00 | 0.00 | 0.00 | 77 | 1016.6 |
| 20260906230657 | 61 | 308 | 0.0 | 0.0 | 0.00 | 0.00 | 0.00 | 77 | 1016.6 |
| 20260906230619 | 62 | 308 | 0.0 | 0.0 | 0.00 | 0.00 | 0.00 | 76 | 1016.5 |
| 20260906230521 | 62 | 308 | 0.0 | 0.0 | 0.00 | 0.00 | 0.00 | 76 | 1016.5 |
| 20260906230427 | 62 | 308 | 0.0 | 0.0 | 0.00 | 0.00 | 0.00 | 75 | 1016.6 |
| 20260906230328 | 62 | 308 | 0.0 | 0.0 | 0.00 | 0.00 | 0.00 | 76 | 1016.6 |
| 20260906230200 | 62 | 308 | 0.0 | 0.0 | 0.00 | 0.00 | 0.00 | 74 | 1016.6 |
| 20260906230115 | 62 | 308 | 0.0 | 0.0 | 0.00 | 0.00 | 0.00 | 74 | 1016.6 |
| 20260906225925 | 63 | 308 | 0.0 | 0.0 | 0.00 | 0.00 | 0.00 | 75 | 1016.6 |
| 20260906225841 | 63 | 308 | 0.0 | 1.0 | 0.00 | 0.00 | 0.00 | 75 | 1016.6 |
| 20260906225712 | 63 | 308 | 0.0 | 1.0 | 0.00 | 0.00 | 0.00 | 74 | 1016.6 |
| 20260906225637 | 63 | 308 | 0.0 | 1.0 | 0.00 | 0.00 | 0.00 | 73 | 1016.6 |
| 20260906225509 | 63 | 308 | 0.0 | 1.0 | 0.00 | 0.00 | 0.00 | 74 | 1016.6 |
| 20260906225404 | 63 | 308 | 0.0 | 1.0 | 0.00 | 0.00 | 0.00 | 74 | 1016.6 |
| 20260906225124 | 64 | 308 | 0.0 | 1.0 | 0.00 | 0.00 | 0.00 | 73 | 1016.6 |
| 20260906225040 | 64 | 308 | 0.0 | 1.0 | 0.00 | 0.00 | 0.00 | 72 | 1016.6 |
| 20260906224911 | 64 | 308 | 0.0 | 1.0 | 0.00 | 0.00 | 0.00 | 72 | 1016.7 |
| 20260906224834 | 64 | 308 | 0.0 | 1.0 | 0.00 | 0.00 | 0.00 | 72 | 1016.7 |
| 20260906224659 | 64 | 308 | 0.0 | 1.0 | 0.00 | 0.00 | 0.00 | 70 | 1016.7 |
| 20260906224540 | 64 | 308 | 0.0 | 3.0 | 0.00 | 0.00 | 0.00 | 70 | 1016.7 |
| 20260906224456 | 64 | 308 | 0.0 | 3.0 | 0.00 | 0.00 | 0.00 | 70 | 1016.7 |
| 20260906224419 | 64 | 308 | 0.0 | 3.0 | 0.00 | 0.00 | 0.00 | 70 | 1016.8 |
| 20260906224234 | 65 | 308 | 0.0 | 3.0 | 0.00 | 0.00 | 0.00 | 69 | 1016.8 |
| 20260906224149 | 65 | 308 | 0.0 | 3.0 | 0.00 | 0.00 | 0.00 | 68 | 1016.7 |
| 20260906223940 | 65 | 308 | 1.0 | 9.0 | 0.00 | 0.00 | 0.00 | 68 | 1016.7 |
| 20260906223855 | 65 | 308 | 1.0 | 9.0 | 0.00 | 0.00 | 0.00 | 68 | 1016.7 |
| 20260906223726 | 65 | 318 | 0.0 | 9.0 | 0.00 | 0.00 | 0.00 | 69 | 1016.7 |
| 20260906223628 | 65 | 318 | 0.0 | 9.0 | 0.00 | 0.00 | 0.00 | 69 | 1016.7 |
| 20260906223432 | 65 | 318 | 0.0 | 9.0 | 0.00 | 0.00 | 0.00 | 65 | 1016.7 |
| 20260906223354 | 65 | 318 | 1.0 | 9.0 | 0.00 | 0.00 | 0.00 | 65 | 1016.7 |
| 20260906223240 | 66 | 318 | 3.0 | 9.0 | 0.00 | 0.00 | 0.00 | 64 | 1016.8 |
| 20260906223205 | 66 | 327 | 4.0 | 9.0 | 0.00 | 0.00 | 0.00 | 63 | 1016.7 |
| 20260906223015 | 66 | 336 | 2.0 | 5.0 | 0.00 | 0.00 | 0.00 | 63 | 1016.7 |
| 20260906222930 | 66 | 337 | 2.0 | 5.0 | 0.00 | 0.00 | 0.00 | 65 | 1016.7 |
| 20260906222742 | 66 | 310 | 2.0 | 8.0 | 0.00 | 0.00 | 0.00 | 63 | 1016.7 |
| 20260906222638 | 66 | 304 | 3.0 | 8.0 | 0.00 | 0.00 | 0.00 | 62 | 1016.7 |
| 20260906222601 | 66 | 350 | 3.0 | 8.0 | 0.00 | 0.00 | 0.00 | 62 | 1016.7 |
| 20260906222505 | 66 | 330 | 3.0 | 8.0 | 0.00 | 0.00 | 0.00 | 62 | 1016.6 |
| 20260906222429 | 66 | 330 | 3.0 | 8.0 | 0.00 | 0.00 | 0.00 | 61 | 1016.6 |
| 20260906222234 | 66 | 320 | 4.0 | 12.0 | 0.00 | 0.00 | 0.00 | 62 | 1016.7 |
| 20260906222139 | 66 | 303 | 5.0 | 12.0 | 0.00 | 0.00 | 0.00 | 60 | 1016.7 |
| 20260906222044 | 67 | 331 | 4.0 | 12.0 | 0.00 | 0.00 | 0.00 | 60 | 1016.7 |
| 20260906221925 | 67 | 323 | 3.0 | 12.0 | 0.00 | 0.00 | 0.00 | 61 | 1016.7 |
| 20260906221848 | 67 | 329 | 3.0 | 12.0 | 0.00 | 0.00 | 0.00 | 61 | 1016.7 |
| 20260906221751 | 67 | 309 | 4.0 | 12.0 | 0.00 | 0.00 | 0.00 | 60 | 1016.8 |
| 20260906221713 | 67 | 320 | 5.0 | 12.0 | 0.00 | 0.00 | 0.00 | 60 | 1016.8 |
| 20260906221634 | 67 | 336 | 6.0 | 12.0 | 0.00 | 0.00 | 0.00 | 60 | 1016.7 |
| 20260906221518 | 67 | 345 | 5.0 | 12.0 | 0.00 | 0.00 | 0.00 | 60 | 1016.7 |
| 20260906221441 | 67 | 323 | 4.0 | 12.0 | 0.00 | 0.00 | 0.00 | 59 | 1016.7 |
| 20260906221310 | 67 | 330 | 3.0 | 10.0 | 0.00 | 0.00 | 0.00 | 60 | 1016.7 |
| 20260906221223 | 67 | 342 | 4.0 | 10.0 | 0.00 | 0.00 | 0.00 | 60 | 1016.7 |
| 20260906221052 | 68 | 304 | 4.0 | 10.0 | 0.00 | 0.00 | 0.00 | 59 | 1016.7 |
| 20260906220958 | 68 | 332 | 4.0 | 10.0 | 0.00 | 0.00 | 0.00 | 60 | 1016.7 |
| 20260906220841 | 68 | 311 | 6.0 | 10.0 | 0.00 | 0.00 | 0.00 | 59 | 1016.7 |
| 20260906220802 | 68 | 300 | 5.0 | 10.0 | 0.00 | 0.00 | 0.00 | 57 | 1016.7 |
| 20260906220613 | 68 | 296 | 4.0 | 10.0 | 0.00 | 0.00 | 0.00 | 57 | 1016.7 |
| 20260906220526 | 68 | 309 | 5.0 | 10.0 | 0.00 | 0.00 | 0.00 | 57 | 1016.7 |
| 20260906220327 | 68 | 351 | 5.0 | 10.0 | 0.00 | 0.00 | 0.00 | 57 | 1016.7 |
| 20260906220241 | 68 | 332 | 6.0 | 10.0 | 0.00 | 0.00 | 0.00 | 56 | 1016.7 |
| 20260906220143 | 68 | 284 | 7.0 | 10.0 | 0.00 | 0.00 | 0.00 | 57 | 1016.7 |
| 20260906220046 | 69 | 332 | 6.0 | 10.0 | 0.00 | 0.00 | 0.00 | 57 | 1016.7 |
| 20260906215931 | 69 | 16 | 5.0 | 9.0 | 0.00 | 0.00 | 0.00 | 58 | 1016.7 |
| 20260906215837 | 69 | 326 | 5.0 | 9.0 | 0.00 | 0.00 | 0.00 | 57 | 1016.6 |
| 20260906215758 | 69 | 332 | 6.0 | 9.0 | 0.00 | 0.00 | 0.00 | 57 | 1016.7 |
| 20260906215630 | 69 | 350 | 4.0 | 10.0 | 0.00 | 0.00 | 0.00 | 58 | 1016.7 |
| 20260906215523 | 69 | 340 | 4.0 | 10.0 | 0.00 | 0.00 | 0.00 | 58 | 1016.7 |
| 20260906215355 | 69 | 344 | 3.0 | 10.0 | 0.00 | 0.00 | 0.00 | 58 | 1016.7 |
| 20260906215317 | 69 | 350 | 3.0 | 10.0 | 0.00 | 0.00 | 0.00 | 57 | 1016.7 |
| 20260906215238 | 69 | 324 | 4.0 | 10.0 | 0.00 | 0.00 | 0.00 | 57 | 1016.7 |
| 20260906215121 | 69 | 319 | 5.0 | 10.0 | 0.00 | 0.00 | 0.00 | 57 | 1016.7 |
| 20260906214932 | 69 | 345 | 6.0 | 10.0 | 0.00 | 0.00 | 0.00 | 57 | 1016.7 |
| 20260906214829 | 69 | 335 | 5.0 | 10.0 | 0.00 | 0.00 | 0.00 | 57 | 1016.7 |
| 20260906214755 | 69 | 311 | 5.0 | 11.0 | 0.00 | 0.00 | 0.00 | 57 | 1016.7 |
| 20260906214639 | 69 | 313 | 4.0 | 11.0 | 0.00 | 0.00 | 0.00 | 58 | 1016.7 |
| 20260906214535 | 69 | 329 | 3.0 | 11.0 | 0.00 | 0.00 | 0.00 | 56 | 1016.7 |
| 20260906214457 | 70 | 309 | 3.0 | 11.0 | 0.00 | 0.00 | 0.00 | 57 | 1016.7 |
| 20260906214419 | 70 | 302 | 4.0 | 11.0 | 0.00 | 0.00 | 0.00 | 56 | 1016.7 |
| 20260906214335 | 70 | 309 | 5.0 | 11.0 | 0.00 | 0.00 | 0.00 | 56 | 1016.7 |
| 20260906214205 | 70 | 313 | 5.0 | 12.0 | 0.00 | 0.00 | 0.00 | 57 | 1016.6 |
| 20260906214127 | 70 | 308 | 6.0 | 12.0 | 0.00 | 0.00 | 0.00 | 57 | 1016.6 |
| 20260906213930 | 70 | 342 | 5.0 | 12.0 | 0.00 | 0.00 | 0.00 | 56 | 1016.7 |
| 20260906213836 | 70 | 338 | 3.0 | 12.0 | 0.00 | 0.00 | 0.00 | 57 | 1016.6 |
| 20260906213742 | 70 | 329 | 4.0 | 12.0 | 0.00 | 0.00 | 0.00 | 58 | 1016.7 |
| 20260906213643 | 70 | 325 | 6.0 | 12.0 | 0.00 | 0.00 | 0.00 | 58 | 1016.7 |
| 20260906213513 | 70 | 350 | 7.0 | 12.0 | 0.00 | 0.00 | 0.00 | 56 | 1016.7 |
| 20260906213406 | 70 | 350 | 8.0 | 12.0 | 0.00 | 0.00 | 0.00 | 56 | 1016.6 |
| 20260906213237 | 70 | 319 | 7.0 | 12.0 | 0.00 | 0.00 | 0.00 | 56 | 1016.7 |
| 20260906213137 | 70 | 331 | 5.0 | 12.0 | 0.00 | 0.00 | 0.00 | 56 | 1016.7 |
| 20260906213009 | 70 | 306 | 3.0 | 10.0 | 0.00 | 0.00 | 0.00 | 59 | 1016.7 |
| 20260906212924 | 70 | 333 | 3.0 | 10.0 | 0.00 | 0.00 | 0.00 | 58 | 1016.7 |
| 20260906212735 | 70 | 344 | 4.0 | 12.0 | 0.00 | 0.00 | 0.00 | 58 | 1016.7 |
| 20260906212630 | 70 | 340 | 4.0 | 12.0 | 0.00 | 0.00 | 0.00 | 59 | 1016.7 |
| 20260906212556 | 70 | 355 | 4.0 | 12.0 | 0.00 | 0.00 | 0.00 | 58 | 1016.7 |
| 20260906212500 | 70 | 343 | 5.0 | 12.0 | 0.00 | 0.00 | 0.00 | 57 | 1016.7 |
| 20260906212421 | 70 | 336 | 5.0 | 12.0 | 0.00 | 0.00 | 0.00 | 56 | 1016.7 |
| 20260906212252 | 70 | 311 | 6.0 | 12.0 | 0.00 | 0.00 | 0.00 | 56 | 1016.7 |
| 20260906212208 | 70 | 313 | 7.0 | 12.0 | 0.00 | 0.00 | 0.00 | 58 | 1016.7 |
| 20260906212038 | 70 | 348 | 6.0 | 12.0 | 0.00 | 0.00 | 0.00 | 58 | 1016.7 |
| 20260906211940 | 70 | 332 | 5.0 | 11.0 | 0.00 | 0.00 | 0.00 | 58 | 1016.7 |
| 20260906211741 | 70 | 321 | 6.0 | 11.0 | 0.00 | 0.00 | 0.00 | 58 | 1016.7 |
| 20260906211644 | 70 | 294 | 5.0 | 11.0 | 0.00 | 0.00 | 0.00 | 59 | 1016.7 |
| 20260906211547 | 70 | 325 | 6.0 | 11.0 | 0.00 | 0.00 | 0.00 | 58 | 1016.8 |
| 20260906211430 | 70 | 333 | 6.0 | 11.0 | 0.00 | 0.00 | 0.00 | 60 | 1016.8 |
| 20260906211336 | 70 | 333 | 3.0 | 11.0 | 0.00 | 0.00 | 0.00 | 59 | 1016.8 |
| 20260906211236 | 70 | 325 | 3.0 | 11.0 | 0.00 | 0.00 | 0.00 | 58 | 1016.8 |
| 20260906211107 | 70 | 13 | 6.0 | 11.0 | 0.00 | 0.00 | 0.00 | 57 | 1016.8 |
| 20260906211022 | 70 | 343 | 6.0 | 11.0 | 0.00 | 0.00 | 0.00 | 59 | 1016.8 |
| 20260906210833 | 70 | 329 | 4.0 | 9.0 | 0.00 | 0.00 | 0.00 | 60 | 1016.8 |
| 20260906210748 | 70 | 320 | 3.0 | 11.0 | 0.00 | 0.00 | 0.00 | 61 | 1016.9 |
| 20260906210620 | 69 | 331 | 4.0 | 11.0 | 0.00 | 0.00 | 0.00 | 60 | 1016.9 |
| 20260906210542 | 69 | 332 | 5.0 | 11.0 | 0.00 | 0.00 | 0.00 | 60 | 1016.9 |
| 20260906210412 | 69 | 355 | 4.0 | 11.0 | 0.00 | 0.00 | 0.00 | 61 | 1016.8 |
| 20260906210328 | 69 | 332 | 4.0 | 11.0 | 0.00 | 0.00 | 0.00 | 61 | 1016.8 |
| 20260906210142 | 69 | 360 | 5.0 | 12.0 | 0.00 | 0.00 | 0.00 | 61 | 1016.9 |
| 20260906210037 | 69 | 355 | 6.0 | 12.0 | 0.00 | 0.00 | 0.00 | 60 | 1016.8 |
| 20260906205930 | 69 | 334 | 5.0 | 12.0 | 0.00 | 0.00 | 0.00 | 61 | 1016.8 |
| 20260906205852 | 69 | 355 | 5.0 | 12.0 | 0.00 | 0.00 | 0.00 | 61 | 1016.9 |
| 20260906205722 | 69 | 355 | 6.0 | 12.0 | 0.00 | 0.00 | 0.00 | 60 | 1016.8 |
| 20260906205616 | 69 | 333 | 6.0 | 12.0 | 0.00 | 0.00 | 0.00 | 61 | 1016.9 |
| 20260906205428 | 68 | 340 | 7.0 | 12.0 | 0.00 | 0.00 | 0.00 | 61 | 1016.9 |
| 20260906205345 | 68 | 318 | 6.0 | 12.0 | 0.00 | 0.00 | 0.00 | 60 | 1016.8 |
| 20260906205215 | 69 | 355 | 6.0 | 13.0 | 0.00 | 0.00 | 0.00 | 59 | 1016.8 |
| 20260906205138 | 69 | 340 | 6.0 | 14.0 | 0.00 | 0.00 | 0.00 | 58 | 1016.8 |
| 20260906204859 | 70 | 5 | 6.0 | 14.0 | 0.00 | 0.00 | 0.00 | 57 | 1016.8 |
| 20260906204733 | 70 | 360 | 6.0 | 14.0 | 0.00 | 0.00 | 0.00 | 56 | 1016.8 |
| 20260906204653 | 70 | 355 | 6.0 | 14.0 | 0.00 | 0.00 | 0.00 | 57 | 1016.7 |
| 20260906204556 | 71 | 349 | 8.0 | 14.0 | 0.00 | 0.00 | 0.00 | 56 | 1016.8 |
| 20260906204518 | 71 | 342 | 9.0 | 14.0 | 0.00 | 0.00 | 0.00 | 56 | 1016.8 |
| 20260906204323 | 71 | 355 | 9.0 | 13.0 | 0.00 | 0.00 | 0.00 | 57 | 1016.7 |
| 20260906204224 | 71 | 329 | 9.0 | 13.0 | 0.00 | 0.00 | 0.00 | 57 | 1016.8 |
| 20260906204128 | 71 | 5 | 8.0 | 15.0 | 0.00 | 0.00 | 0.00 | 57 | 1016.7 |
| 20260906204051 | 71 | 344 | 8.0 | 15.0 | 0.00 | 0.00 | 0.00 | 57 | 1016.8 |
| 20260906204012 | 71 | 333 | 7.0 | 15.0 | 0.00 | 0.00 | 0.00 | 56 | 1016.8 |
| 20260906203921 | 71 | 351 | 7.0 | 15.0 | 0.00 | 0.00 | 0.00 | 58 | 1016.8 |
| 20260906203843 | 71 | 355 | 8.0 | 15.0 | 0.00 | 0.00 | 0.00 | 58 | 1016.7 |
| 20260906203702 | 71 | 5 | 7.0 | 15.0 | 0.00 | 0.00 | 0.00 | 59 | 1016.7 |
| 20260906203504 | 70 | 331 | 8.0 | 15.0 | 0.00 | 0.00 | 0.00 | 56 | 1016.7 |
| 20260906203426 | 70 | 10 | 10.0 | 15.0 | 0.00 | 0.00 | 0.00 | 56 | 1016.7 |
| 20260906203229 | 70 | 355 | 10.0 | 15.0 | 0.00 | 0.00 | 0.00 | 55 | 1016.7 |
| 20260906203142 | 71 | 18 | 11.0 | 15.0 | 0.00 | 0.00 | 0.00 | 54 | 1016.7 |
| 20260906203025 | 71 | 336 | 9.0 | 15.0 | 0.00 | 0.00 | 0.00 | 55 | 1016.7 |
| 20260906202947 | 71 | 338 | 8.0 | 15.0 | 0.00 | 0.00 | 0.00 | 56 | 1016.8 |
| 20260906202910 | 71 | 315 | 7.0 | 14.0 | 0.00 | 0.00 | 0.00 | 56 | 1016.7 |
| 20260906202820 | 71 | 321 | 8.0 | 14.0 | 0.00 | 0.00 | 0.00 | 56 | 1016.8 |
| 20260906202720 | 71 | 336 | 9.0 | 14.0 | 0.00 | 0.00 | 0.00 | 55 | 1016.8 |
| 20260906202552 | 71 | 342 | 10.0 | 14.0 | 0.00 | 0.00 | 0.00 | 54 | 1016.8 |
| 20260906202507 | 71 | 338 | 9.0 | 15.0 | 0.00 | 0.00 | 0.00 | 55 | 1016.8 |
| 20260906202330 | 71 | 336 | 9.0 | 18.0 | 0.00 | 0.00 | 0.00 | 55 | 1016.8 |
| 20260906202245 | 71 | 328 | 10.0 | 18.0 | 0.00 | 0.00 | 0.00 | 56 | 1016.8 |
| 20260906202116 | 71 | 355 | 9.0 | 20.0 | 0.00 | 0.00 | 0.00 | 55 | 1016.8 |
| 20260906202016 | 71 | 339 | 7.0 | 20.0 | 0.00 | 0.00 | 0.00 | 55 | 1016.8 |
| 20260906201848 | 70 | 339 | 7.0 | 20.0 | 0.00 | 0.00 | 0.00 | 55 | 1016.8 |
| 20260906201724 | 70 | 355 | 11.0 | 20.0 | 0.00 | 0.00 | 0.00 | 54 | 1016.8 |
| 20260906201632 | 71 | 347 | 12.0 | 20.0 | 0.00 | 0.00 | 0.00 | 56 | 1016.8 |
| 20260906201532 | 71 | 355 | 13.0 | 20.0 | 0.00 | 0.00 | 0.00 | 56 | 1016.8 |
| 20260906201336 | 71 | 340 | 11.0 | 20.0 | 0.00 | 0.00 | 0.00 | 54 | 1016.7 |
| 20260906201238 | 71 | 327 | 10.0 | 20.0 | 0.00 | 0.00 | 0.00 | 55 | 1016.7 |
| 20260906201140 | 71 | 331 | 9.0 | 20.0 | 0.00 | 0.00 | 0.00 | 54 | 1016.7 |
| 20260906201101 | 71 | 325 | 9.0 | 20.0 | 0.00 | 0.00 | 0.00 | 56 | 1016.7 |
| 20260906201024 | 71 | 333 | 8.0 | 17.0 | 0.00 | 0.00 | 0.00 | 55 | 1016.6 |
| 20260906200917 | 71 | 344 | 10.0 | 17.0 | 0.00 | 0.00 | 0.00 | 54 | 1016.6 |
| 20260906200839 | 71 | 313 | 10.0 | 17.0 | 0.00 | 0.00 | 0.00 | 56 | 1016.6 |
| 20260906200709 | 71 | 335 | 13.0 | 17.0 | 0.00 | 0.00 | 0.00 | 55 | 1016.6 |
| 20260906200611 | 71 | 342 | 13.0 | 17.0 | 0.00 | 0.00 | 0.00 | 55 | 1016.6 |
| 20260906200457 | 71 | 344 | 10.0 | 17.0 | 0.00 | 0.00 | 0.00 | 56 | 1016.6 |
| 20260906200420 | 71 | 5 | 9.0 | 17.0 | 0.00 | 0.00 | 0.00 | 57 | 1016.6 |
| 20260906200240 | 71 | 312 | 7.0 | 16.0 | 0.00 | 0.00 | 0.00 | 55 | 1016.6 |
| 20260906200022 | 71 | 334 | 4.0 | 18.0 | 0.00 | 0.00 | 0.00 | 57 | 1016.5 |
| 20260906195945 | 71 | 286 | 5.0 | 18.0 | 0.00 | 0.00 | 0.00 | 57 | 1016.6 |
| 20260906195848 | 71 | 314 | 8.0 | 18.0 | 0.00 | 0.00 | 0.00 | 58 | 1016.6 |
| 20260906195729 | 71 | 338 | 11.0 | 18.0 | 0.00 | 0.00 | 0.00 | 55 | 1016.6 |
| 20260906195652 | 71 | 355 | 11.0 | 18.0 | 0.00 | 0.00 | 0.00 | 55 | 1016.7 |
| 20260906195556 | 71 | 355 | 10.0 | 18.0 | 0.00 | 0.00 | 0.00 | 57 | 1016.7 |
| 20260906195519 | 71 | 331 | 10.0 | 18.0 | 0.00 | 0.00 | 0.00 | 55 | 1016.7 |
| 20260906195325 | 71 | 290 | 12.0 | 18.0 | 0.00 | 0.00 | 0.00 | 53 | 1016.7 |
| 20260906195227 | 71 | 278 | 9.0 | 18.0 | 0.00 | 0.00 | 0.00 | 58 | 1016.6 |
| 20260906195133 | 71 | 317 | 4.0 | 18.0 | 0.00 | 0.00 | 0.00 | 57 | 1016.6 |
| 20260906195053 | 71 | 5 | 4.0 | 16.0 | 0.00 | 0.00 | 0.00 | 57 | 1016.7 |
| 20260906194924 | 71 | 348 | 6.0 | 16.0 | 0.00 | 0.00 | 0.00 | 55 | 1016.6 |
| 20260906194817 | 71 | 24 | 5.0 | 16.0 | 0.00 | 0.00 | 0.00 | 56 | 1016.6 |
| 20260906194628 | 71 | 355 | 9.0 | 14.0 | 0.00 | 0.00 | 0.00 | 57 | 1016.6 |
| 20260906194533 | 71 | 24 | 9.0 | 17.0 | 0.00 | 0.00 | 0.00 | 55 | 1016.6 |
| 20260906194431 | 71 | 11 | 7.0 | 17.0 | 0.00 | 0.00 | 0.00 | 57 | 1016.6 |
| 20260906194235 | 71 | 328 | 6.0 | 17.0 | 0.00 | 0.00 | 0.00 | 59 | 1016.6 |
| 20260906194141 | 70 | 11 | 5.0 | 17.0 | 0.00 | 0.00 | 0.00 | 60 | 1016.6 |
| 20260906194025 | 70 | 341 | 5.0 | 17.0 | 0.00 | 0.00 | 0.00 | 60 | 1016.6 |
| 20260906193946 | 70 | 355 | 7.0 | 17.0 | 0.00 | 0.00 | 0.00 | 60 | 1016.5 |
| 20260906193817 | 70 | 344 | 11.0 | 17.0 | 0.00 | 0.00 | 0.00 | 58 | 1016.5 |
| 20260906193731 | 70 | 326 | 11.0 | 17.0 | 0.00 | 0.00 | 0.00 | 57 | 1016.5 |
| 20260906193542 | 69 | 5 | 9.0 | 16.0 | 0.00 | 0.00 | 0.00 | 59 | 1016.6 |
| 20260906193458 | 69 | 337 | 9.0 | 16.0 | 0.00 | 0.00 | 0.00 | 58 | 1016.6 |
| 20260906193317 | 69 | 350 | 10.0 | 15.0 | 0.00 | 0.00 | 0.00 | 58 | 1016.7 |
| 20260906193238 | 69 | 327 | 11.0 | 15.0 | 0.00 | 0.00 | 0.00 | 57 | 1016.7 |
| 20260906193102 | 69 | 304 | 8.0 | 15.0 | 0.00 | 0.00 | 0.00 | 60 | 1016.7 |
| 20260906193027 | 69 | 338 | 6.0 | 15.0 | 0.00 | 0.00 | 0.00 | 60 | 1016.7 |
| 20260906192831 | 69 | 331 | 6.0 | 15.0 | 0.00 | 0.00 | 0.00 | 57 | 1016.7 |
| 20260906192731 | 69 | 329 | 8.0 | 15.0 | 0.00 | 0.00 | 0.00 | 57 | 1016.7 |
| 20260906192634 | 69 | 308 | 9.0 | 15.0 | 0.00 | 0.00 | 0.00 | 58 | 1016.7 |
| 20260906192556 | 70 | 327 | 10.0 | 15.0 | 0.00 | 0.00 | 0.00 | 56 | 1016.7 |
| 20260906192405 | 70 | 275 | 9.0 | 15.0 | 0.00 | 0.00 | 0.00 | 55 | 1016.7 |
| 20260906192327 | 70 | 351 | 8.0 | 15.0 | 0.00 | 0.00 | 0.00 | 55 | 1016.7 |
| 20260906192130 | 71 | 290 | 8.0 | 15.0 | 0.00 | 0.00 | 0.00 | 57 | 1016.6 |
| 20260906192052 | 71 | 331 | 8.0 | 15.0 | 0.00 | 0.00 | 0.00 | 57 | 1016.6 |
| 20260906191956 | 71 | 355 | 8.0 | 15.0 | 0.00 | 0.00 | 0.00 | 57 | 1016.6 |
| 20260906191923 | 71 | 323 | 9.0 | 15.0 | 0.00 | 0.00 | 0.00 | 57 | 1016.6 |
| 20260906191726 | 71 | 317 | 10.0 | 15.0 | 0.00 | 0.00 | 0.00 | 56 | 1016.7 |
| 20260906191629 | 71 | 326 | 10.0 | 14.0 | 0.00 | 0.00 | 0.00 | 59 | 1016.7 |
| 20260906191535 | 71 | 323 | 9.0 | 16.0 | 0.00 | 0.00 | 0.00 | 57 | 1016.7 |
| 20260906191457 | 71 | 336 | 8.0 | 16.0 | 0.00 | 0.00 | 0.00 | 61 | 1016.6 |
| 20260906191333 | 71 | 319 | 7.0 | 16.0 | 0.00 | 0.00 | 0.00 | 57 | 1016.7 |
| 20260906191235 | 71 | 313 | 8.0 | 16.0 | 0.00 | 0.00 | 0.00 | 58 | 1016.7 |
| 20260906191158 | 71 | 318 | 7.0 | 16.0 | 0.00 | 0.00 | 0.00 | 62 | 1016.7 |
| 20260906191103 | 71 | 338 | 5.0 | 16.0 | 0.00 | 0.00 | 0.00 | 63 | 1016.6 |
| 20260906191028 | 70 | 360 | 5.0 | 16.0 | 0.00 | 0.00 | 0.00 | 63 | 1016.6 |
| 20260906190900 | 70 | 342 | 8.0 | 16.0 | 0.00 | 0.00 | 0.00 | 62 | 1016.6 |
| 20260906190814 | 70 | 337 | 9.0 | 16.0 | 0.00 | 0.00 | 0.00 | 61 | 1016.7 |
| 20260906190625 | 70 | 348 | 9.0 | 16.0 | 0.00 | 0.00 | 0.00 | 61 | 1016.7 |
| 20260906190540 | 70 | 323 | 9.0 | 15.0 | 0.00 | 0.00 | 0.00 | 62 | 1016.7 |
| 20260906190408 | 69 | 306 | 10.0 | 15.0 | 0.00 | 0.00 | 0.00 | 62 | 1016.8 |
| 20260906190308 | 69 | 346 | 9.0 | 15.0 | 0.00 | 0.00 | 0.00 | 63 | 1016.8 |
| 20260906190139 | 69 | 315 | 10.0 | 15.0 | 0.00 | 0.00 | 0.00 | 66 | 1016.7 |
| 20260906190032 | 69 | 355 | 11.0 | 15.0 | 0.00 | 0.00 | 0.00 | 65 | 1016.7 |
| 20260906185903 | 69 | 360 | 8.0 | 15.0 | 0.00 | 0.00 | 0.00 | 65 | 1016.8 |
| 20260906185824 | 68 | 348 | 7.0 | 15.0 | 0.00 | 0.00 | 0.00 | 66 | 1016.8 |
| 20260906185632 | 68 | 326 | 6.0 | 15.0 | 0.00 | 0.00 | 0.00 | 66 | 1016.8 |
| 20260906185553 | 68 | 312 | 6.0 | 15.0 | 0.00 | 0.00 | 0.00 | 65 | 1016.8 |
| 20260906185437 | 68 | 13 | 8.0 | 15.0 | 0.00 | 0.00 | 0.00 | 64 | 1016.8 |
| 20260906185358 | 68 | 5 | 9.0 | 15.0 | 0.00 | 0.00 | 0.00 | 63 | 1016.8 |
| 20260906185140 | 69 | 308 | 8.0 | 13.0 | 0.00 | 0.00 | 0.00 | 65 | 1016.8 |
| 20260906185102 | 69 | 355 | 7.0 | 13.0 | 0.00 | 0.00 | 0.00 | 65 | 1016.8 |
| 20260906185007 | 69 | 337 | 4.0 | 13.0 | 0.00 | 0.00 | 0.00 | 65 | 1016.9 |
| 20260906184929 | 69 | 316 | 4.0 | 13.0 | 0.00 | 0.00 | 0.00 | 64 | 1016.9 |
| 20260906184748 | 69 | 313 | 8.0 | 13.0 | 0.00 | 0.00 | 0.00 | 65 | 1016.8 |
| 20260906184641 | 69 | 252 | 7.0 | 13.0 | 0.00 | 0.00 | 0.00 | 65 | 1016.8 |
| 20260906184511 | 69 | 355 | 7.0 | 13.0 | 0.00 | 0.00 | 0.00 | 63 | 1016.8 |
| 20260906184436 | 69 | 333 | 7.0 | 13.0 | 0.00 | 0.00 | 0.00 | 63 | 1016.8 |
| 20260906184308 | 69 | 275 | 7.0 | 13.0 | 0.00 | 0.00 | 0.00 | 66 | 1016.8 |
| 20260906184144 | 69 | 329 | 7.0 | 13.0 | 0.00 | 0.00 | 0.00 | 65 | 1016.8 |
| 20260906184105 | 69 | 314 | 7.0 | 13.0 | 0.00 | 0.00 | 0.00 | 67 | 1016.8 |
| 20260906184008 | 68 | 294 | 7.0 | 13.0 | 0.00 | 0.00 | 0.00 | 68 | 1016.9 |
| 20260906183819 | 68 | 360 | 5.0 | 12.0 | 0.00 | 0.00 | 0.00 | 69 | 1016.9 |
| 20260906183740 | 68 | 338 | 6.0 | 12.0 | 0.00 | 0.00 | 0.00 | 67 | 1016.9 |
| 20260906183542 | 69 | 355 | 7.0 | 12.0 | 0.00 | 0.00 | 0.00 | 66 | 1016.9 |
| 20260906183505 | 69 | 332 | 8.0 | 12.0 | 0.00 | 0.00 | 0.00 | 65 | 1017.0 |
| 20260906183409 | 69 | 319 | 9.0 | 16.0 | 0.00 | 0.00 | 0.00 | 65 | 1017.0 |
| 20260906183329 | 69 | 338 | 8.0 | 16.0 | 0.00 | 0.00 | 0.00 | 65 | 1017.0 |
| 20260906183204 | 69 | 324 | 4.0 | 16.0 | 0.00 | 0.00 | 0.00 | 68 | 1017.0 |
| 20260906183126 | 69 | 11 | 3.0 | 16.0 | 0.00 | 0.00 | 0.00 | 68 | 1017.0 |
| 20260906182948 | 69 | 314 | 7.0 | 16.0 | 0.00 | 0.00 | 0.00 | 63 | 1017.0 |
| 20260906182758 | 69 | 303 | 6.0 | 16.0 | 0.00 | 0.00 | 0.00 | 66 | 1017.0 |
| 20260906182720 | 69 | 321 | 8.0 | 16.0 | 0.00 | 0.00 | 0.00 | 65 | 1017.0 |
| 20260906182524 | 69 | 327 | 8.0 | 17.0 | 0.00 | 0.00 | 0.00 | 65 | 1017.0 |
| 20260906182447 | 69 | 334 | 7.0 | 18.0 | 0.00 | 0.00 | 0.00 | 64 | 1017.1 |
| 20260906182332 | 70 | 309 | 7.0 | 18.0 | 0.00 | 0.00 | 0.00 | 63 | 1017.1 |
| 20260906182226 | 70 | 290 | 7.0 | 18.0 | 0.00 | 0.00 | 0.00 | 66 | 1017.1 |
| 20260906182148 | 70 | 313 | 7.0 | 18.0 | 0.00 | 0.00 | 0.00 | 64 | 1017.1 |
| 20260906182115 | 70 | 336 | 7.0 | 18.0 | 0.00 | 0.00 | 0.00 | 64 | 1017.0 |
| 20260906182029 | 70 | 328 | 8.0 | 18.0 | 0.00 | 0.00 | 0.00 | 64 | 1017.0 |
| 20260906181900 | 70 | 317 | 10.0 | 18.0 | 0.00 | 0.00 | 0.00 | 65 | 1017.1 |
| 20260906181739 | 70 | 332 | 11.0 | 18.0 | 0.00 | 0.00 | 0.00 | 67 | 1017.1 |
| 20260906181644 | 70 | 360 | 8.0 | 14.0 | 0.00 | 0.00 | 0.00 | 69 | 1017.0 |
| 20260906181523 | 69 | 16 | 8.0 | 14.0 | 0.00 | 0.00 | 0.00 | 68 | 1017.1 |
| 20260906181428 | 69 | 46 | 8.0 | 14.0 | 0.00 | 0.00 | 0.00 | 67 | 1017.1 |
| 20260906181351 | 69 | 360 | 8.0 | 14.0 | 0.00 | 0.00 | 0.00 | 68 | 1017.1 |
| 20260906181252 | 69 | 319 | 8.0 | 14.0 | 0.00 | 0.00 | 0.00 | 67 | 1017.1 |
| 20260906181157 | 69 | 336 | 6.0 | 14.0 | 0.00 | 0.00 | 0.00 | 65 | 1017.1 |
| 20260906181119 | 69 | 315 | 6.0 | 14.0 | 0.00 | 0.00 | 0.00 | 68 | 1017.1 |
| 20260906180935 | 69 | 310 | 8.0 | 14.0 | 0.00 | 0.00 | 0.00 | 65 | 1017.1 |
| 20260906180828 | 69 | 300 | 9.0 | 14.0 | 0.00 | 0.00 | 0.00 | 66 | 1017.1 |
| 20260906180750 | 69 | 324 | 8.0 | 14.0 | 0.00 | 0.00 | 0.00 | 65 | 1017.1 |
| 20260906180655 | 69 | 335 | 8.0 | 14.0 | 0.00 | 0.00 | 0.00 | 66 | 1017.2 |
| 20260906180616 | 69 | 355 | 7.0 | 14.0 | 0.00 | 0.00 | 0.00 | 66 | 1017.2 |
| 20260906180427 | 69 | 329 | 4.0 | 14.0 | 0.00 | 0.00 | 0.00 | 65 | 1017.1 |
| 20260906180322 | 69 | 274 | 5.0 | 14.0 | 0.00 | 0.00 | 0.00 | 65 | 1017.1 |
| 20260906180131 | 69 | 325 | 9.0 | 14.0 | 0.00 | 0.00 | 0.00 | 66 | 1017.2 |
| 20260906180025 | 69 | 314 | 7.0 | 14.0 | 0.00 | 0.00 | 0.00 | 67 | 1017.2 |
| 20260906175923 | 69 | 344 | 4.0 | 14.0 | 0.00 | 0.00 | 0.00 | 64 | 1017.1 |
| 20260906175844 | 69 | 327 | 4.0 | 14.0 | 0.00 | 0.00 | 0.00 | 65 | 1017.1 |
| 20260906175715 | 69 | 314 | 7.0 | 14.0 | 0.00 | 0.00 | 0.00 | 63 | 1017.2 |
| 20260906175630 | 69 | 246 | 8.0 | 14.0 | 0.00 | 0.00 | 0.00 | 64 | 1017.2 |
| 20260906175459 | 69 | 339 | 7.0 | 14.0 | 0.00 | 0.00 | 0.00 | 67 | 1017.1 |
| 20260906175422 | 69 | 347 | 6.0 | 14.0 | 0.00 | 0.00 | 0.00 | 68 | 1017.1 |
| 20260906175336 | 69 | 350 | 6.0 | 14.0 | 0.00 | 0.00 | 0.00 | 67 | 1017.2 |
| 20260906175207 | 69 | 315 | 7.0 | 14.0 | 0.00 | 0.00 | 0.00 | 66 | 1017.2 |
| 20260906175129 | 69 | 5 | 5.0 | 14.0 | 0.00 | 0.00 | 0.00 | 69 | 1017.2 |
| 20260906174935 | 69 | 38 | 6.0 | 14.0 | 0.00 | 0.00 | 0.00 | 66 | 1017.2 |
| 20260906174841 | 69 | 338 | 8.0 | 14.0 | 0.00 | 0.00 | 0.00 | 68 | 1017.3 |
| 20260906174745 | 69 | 292 | 5.0 | 12.0 | 0.00 | 0.00 | 0.00 | 65 | 1017.3 |
| 20260906174648 | 69 | 226 | 5.0 | 12.0 | 0.00 | 0.00 | 0.00 | 66 | 1017.3 |
| 20260906174610 | 69 | 267 | 6.0 | 12.0 | 0.00 | 0.00 | 0.00 | 66 | 1017.3 |
| 20260906174515 | 69 | 325 | 7.0 | 12.0 | 0.00 | 0.00 | 0.00 | 68 | 1017.3 |
| 20260906174436 | 69 | 317 | 6.0 | 12.0 | 0.00 | 0.00 | 0.00 | 69 | 1017.3 |
| 20260906174255 | 69 | 330 | 4.0 | 14.0 | 0.00 | 0.00 | 0.00 | 67 | 1017.3 |
| 20260906174105 | 69 | 328 | 5.0 | 14.0 | 0.00 | 0.00 | 0.00 | 66 | 1017.3 |
| 20260906174020 | 68 | 336 | 5.0 | 14.0 | 0.00 | 0.00 | 0.00 | 66 | 1017.3 |
| 20260906173850 | 68 | 337 | 7.0 | 14.0 | 0.00 | 0.00 | 0.00 | 66 | 1017.3 |
| 20260906173813 | 68 | 291 | 8.0 | 14.0 | 0.00 | 0.00 | 0.00 | 65 | 1017.3 |
| 20260906173525 | 68 | 347 | 7.0 | 14.0 | 0.00 | 0.00 | 0.00 | 68 | 1017.3 |
| 20260906173452 | 68 | 346 | 6.0 | 14.0 | 0.00 | 0.00 | 0.00 | 66 | 1017.3 |
| 20260906173355 | 68 | 311 | 7.0 | 14.0 | 0.00 | 0.00 | 0.00 | 66 | 1017.3 |
| 20260906173236 | 68 | 327 | 9.0 | 14.0 | 0.00 | 0.00 | 0.00 | 68 | 1017.3 |
| 20260906173200 | 68 | 336 | 9.0 | 14.0 | 0.00 | 0.00 | 0.00 | 69 | 1017.3 |
| 20260906173024 | 68 | 325 | 7.0 | 13.0 | 0.00 | 0.00 | 0.00 | 68 | 1017.4 |
| 20260906172936 | 68 | 360 | 7.0 | 13.0 | 0.00 | 0.00 | 0.00 | 68 | 1017.4 |
| 20260906172839 | 68 | 360 | 5.0 | 13.0 | 0.00 | 0.00 | 0.00 | 70 | 1017.4 |
| 20260906172741 | 68 | 340 | 6.0 | 13.0 | 0.00 | 0.00 | 0.00 | 66 | 1017.4 |
| 20260906172701 | 68 | 340 | 8.0 | 13.0 | 0.00 | 0.00 | 0.00 | 66 | 1017.4 |
| 20260906172607 | 68 | 5 | 8.0 | 13.0 | 0.00 | 0.00 | 0.00 | 64 | 1017.4 |
| 20260906172512 | 68 | 333 | 6.0 | 13.0 | 0.00 | 0.00 | 0.00 | 66 | 1017.4 |
| 20260906172432 | 69 | 349 | 7.0 | 13.0 | 0.00 | 0.00 | 0.00 | 66 | 1017.4 |
| 20260906172306 | 69 | 332 | 9.0 | 13.0 | 0.00 | 0.00 | 0.00 | 69 | 1017.4 |
| 20260906172218 | 69 | 355 | 8.0 | 13.0 | 0.00 | 0.00 | 0.00 | 68 | 1017.4 |
| 20260906172050 | 68 | 341 | 5.0 | 14.0 | 0.00 | 0.00 | 0.00 | 72 | 1017.5 |
| 20260906172012 | 68 | 346 | 4.0 | 14.0 | 0.00 | 0.00 | 0.00 | 68 | 1017.5 |
| 20260906171935 | 68 | 275 | 5.0 | 14.0 | 0.00 | 0.00 | 0.00 | 69 | 1017.5 |
| 20260906171820 | 68 | 325 | 7.0 | 14.0 | 0.00 | 0.00 | 0.00 | 68 | 1017.5 |
| 20260906171719 | 68 | 355 | 8.0 | 14.0 | 0.00 | 0.00 | 0.00 | 68 | 1017.5 |
| 20260906171550 | 68 | 321 | 6.0 | 14.0 | 0.00 | 0.00 | 0.00 | 67 | 1017.5 |
| 20260906171504 | 68 | 325 | 5.0 | 14.0 | 0.00 | 0.00 | 0.00 | 67 | 1017.5 |
| 20260906171335 | 68 | 342 | 9.0 | 14.0 | 0.00 | 0.00 | 0.00 | 66 | 1017.6 |
| 20260906171240 | 68 | 355 | 9.0 | 14.0 | 0.00 | 0.00 | 0.00 | 70 | 1017.6 |
| 20260906171112 | 68 | 310 | 6.0 | 14.0 | 0.00 | 0.00 | 0.00 | 71 | 1017.5 |
| 20260906171025 | 68 | 331 | 5.0 | 13.0 | 0.00 | 0.00 | 0.00 | 72 | 1017.5 |
| 20260906170857 | 67 | 306 | 6.0 | 13.0 | 0.00 | 0.00 | 0.00 | 70 | 1017.5 |
| 20260906170818 | 67 | 360 | 8.0 | 13.0 | 0.00 | 0.00 | 0.00 | 70 | 1017.5 |
| 20260906170641 | 67 | 333 | 8.0 | 13.0 | 0.00 | 0.00 | 0.00 | 71 | 1017.5 |
| 20260906170543 | 67 | 334 | 7.0 | 13.0 | 0.00 | 0.00 | 0.00 | 70 | 1017.5 |
| 20260906170427 | 67 | 335 | 7.0 | 13.0 | 0.00 | 0.00 | 0.00 | 69 | 1017.5 |
| 20260906170349 | 67 | 317 | 7.0 | 13.0 | 0.00 | 0.00 | 0.00 | 67 | 1017.5 |
| 20260906170231 | 67 | 317 | 7.0 | 12.0 | 0.00 | 0.00 | 0.00 | 67 | 1017.5 |
| 20260906170153 | 68 | 327 | 6.0 | 12.0 | 0.00 | 0.00 | 0.00 | 69 | 1017.5 |
| 20260906170059 | 68 | 320 | 5.0 | 12.0 | 0.00 | 0.00 | 0.00 | 69 | 1017.5 |
| 20260906165921 | 68 | 287 | 6.0 | 12.0 | 0.00 | 0.00 | 0.00 | 70 | 1017.6 |
| 20260906165846 | 68 | 355 | 7.0 | 12.0 | 0.00 | 0.00 | 0.00 | 69 | 1017.6 |
| 20260906165715 | 68 | 355 | 5.0 | 12.0 | 0.00 | 0.00 | 0.00 | 69 | 1017.5 |
| 20260906165637 | 68 | 344 | 4.0 | 11.0 | 0.00 | 0.00 | 0.00 | 69 | 1017.5 |
| 20260906165501 | 68 | 333 | 7.0 | 11.0 | 0.00 | 0.00 | 0.00 | 69 | 1017.6 |
| 20260906165423 | 68 | 355 | 7.0 | 11.0 | 0.00 | 0.00 | 0.00 | 72 | 1017.6 |
| 20260906165252 | 68 | 320 | 7.0 | 10.0 | 0.00 | 0.00 | 0.00 | 70 | 1017.6 |
| 20260906165201 | 68 | 311 | 6.0 | 10.0 | 0.00 | 0.00 | 0.00 | 70 | 1017.6 |
| 20260906165023 | 68 | 342 | 5.0 | 10.0 | 0.00 | 0.00 | 0.00 | 71 | 1017.6 |
| 20260906164949 | 68 | 300 | 4.0 | 11.0 | 0.00 | 0.00 | 0.00 | 71 | 1017.7 |
| 20260906164843 | 68 | 303 | 3.0 | 11.0 | 0.00 | 0.00 | 0.00 | 71 | 1017.7 |
| 20260906164806 | 68 | 317 | 2.0 | 11.0 | 0.00 | 0.00 | 0.00 | 71 | 1017.7 |
| 20260906164719 | 68 | 240 | 3.0 | 11.0 | 0.00 | 0.00 | 0.00 | 71 | 1017.7 |
| 20260906164530 | 68 | 297 | 6.0 | 11.0 | 0.00 | 0.00 | 0.00 | 70 | 1017.7 |
| 20260906164446 | 68 | 331 | 5.0 | 11.0 | 0.00 | 0.00 | 0.00 | 74 | 1017.7 |
| 20260906164315 | 67 | 5 | 7.0 | 13.0 | 0.00 | 0.00 | 0.00 | 73 | 1017.8 |
| 20260906164216 | 67 | 325 | 8.0 | 13.0 | 0.00 | 0.00 | 0.00 | 73 | 1017.7 |
| 20260906164059 | 67 | 342 | 7.0 | 13.0 | 0.00 | 0.00 | 0.00 | 77 | 1017.7 |
| 20260906164020 | 67 | 325 | 6.0 | 13.0 | 0.00 | 0.00 | 0.00 | 77 | 1017.7 |
| 20260906163836 | 66 | 344 | 4.0 | 13.0 | 0.00 | 0.00 | 0.00 | 75 | 1017.8 |
| 20260906163730 | 66 | 19 | 5.0 | 13.0 | 0.00 | 0.00 | 0.00 | 73 | 1017.8 |
| 20260906163654 | 66 | 17 | 5.0 | 13.0 | 0.00 | 0.00 | 0.00 | 73 | 1017.8 |
| 20260906163559 | 66 | 14 | 6.0 | 13.0 | 0.00 | 0.00 | 0.00 | 71 | 1017.8 |
| 20260906163521 | 66 | 11 | 6.0 | 13.0 | 0.00 | 0.00 | 0.00 | 71 | 1017.8 |
| 20260906163233 | 66 | 336 | 8.0 | 12.0 | 0.00 | 0.00 | 0.00 | 72 | 1017.9 |
| 20260906163136 | 66 | 333 | 8.0 | 12.0 | 0.00 | 0.00 | 0.00 | 72 | 1017.9 |
| 20260906163020 | 66 | 267 | 7.0 | 11.0 | 0.00 | 0.00 | 0.00 | 73 | 1017.9 |
| 20260906162953 | 66 | 320 | 7.0 | 11.0 | 0.00 | 0.00 | 0.00 | 73 | 1017.9 |
| 20260906162923 | 65 | 288 | 6.0 | 11.0 | 0.00 | 0.00 | 0.00 | 75 | 1017.9 |
| 20260906162802 | 65 | 333 | 6.0 | 10.0 | 0.00 | 0.00 | 0.00 | 77 | 1017.9 |
| 20260906162732 | 65 | 5 | 6.0 | 10.0 | 0.00 | 0.00 | 0.00 | 77 | 1017.9 |
| 20260906162537 | 65 | 311 | 3.0 | 10.0 | 0.00 | 0.00 | 0.00 | 76 | 1018.0 |
| 20260906162458 | 65 | 336 | 3.0 | 10.0 | 0.00 | 0.00 | 0.00 | 76 | 1018.0 |
| 20260906162323 | 65 | 333 | 3.0 | 10.0 | 0.00 | 0.00 | 0.00 | 76 | 1018.0 |
| 20260906162237 | 65 | 334 | 3.0 | 10.0 | 0.00 | 0.00 | 0.00 | 78 | 1018.1 |
| 20260906162107 | 65 | 338 | 5.0 | 10.0 | 0.00 | 0.00 | 0.00 | 75 | 1018.1 |
| 20260906162030 | 65 | 297 | 6.0 | 10.0 | 0.00 | 0.00 | 0.00 | 76 | 1018.1 |
| 20260906161837 | 65 | 332 | 7.0 | 10.0 | 0.00 | 0.00 | 0.00 | 77 | 1018.1 |
| 20260906161740 | 65 | 18 | 6.0 | 10.0 | 0.00 | 0.00 | 0.00 | 78 | 1018.1 |
| 20260906161624 | 65 | 355 | 6.0 | 10.0 | 0.00 | 0.00 | 0.00 | 77 | 1018.1 |
| 20260906161518 | 65 | 342 | 7.0 | 10.0 | 0.00 | 0.00 | 0.00 | 78 | 1018.1 |
| 20260906161431 | 65 | 302 | 6.0 | 10.0 | 0.00 | 0.00 | 0.00 | 78 | 1018.2 |
| 20260906161335 | 64 | 323 | 5.0 | 10.0 | 0.00 | 0.00 | 0.00 | 79 | 1018.1 |
| 20260906161256 | 64 | 316 | 4.0 | 8.0 | 0.00 | 0.00 | 0.00 | 79 | 1018.2 |
| 20260906161126 | 64 | 322 | 3.0 | 12.0 | 0.00 | 0.00 | 0.00 | 76 | 1018.1 |
| 20260906161040 | 64 | 315 | 3.0 | 12.0 | 0.00 | 0.00 | 0.00 | 78 | 1018.2 |
| 20260906160909 | 64 | 315 | 5.0 | 12.0 | 0.00 | 0.00 | 0.00 | 80 | 1018.2 |
| 20260906160832 | 64 | 348 | 6.0 | 12.0 | 0.00 | 0.00 | 0.00 | 79 | 1018.3 |
| 20260906160716 | 64 | 323 | 6.0 | 12.0 | 0.00 | 0.00 | 0.00 | 79 | 1018.4 |
| 20260906160637 | 64 | 330 | 6.0 | 12.0 | 0.00 | 0.00 | 0.00 | 77 | 1018.4 |
| 20260906160509 | 64 | 348 | 7.0 | 12.0 | 0.00 | 0.00 | 0.00 | 78 | 1018.4 |
| 20260906160322 | 63 | 330 | 7.0 | 12.0 | 0.00 | 0.00 | 0.00 | 81 | 1018.4 |
| 20260906160224 | 63 | 360 | 4.0 | 11.0 | 0.00 | 0.00 | 0.00 | 79 | 1018.4 |
| 20260906160129 | 63 | 45 | 4.0 | 11.0 | 0.00 | 0.00 | 0.00 | 80 | 1018.4 |
| 20260906160051 | 63 | 12 | 5.0 | 11.0 | 0.00 | 0.00 | 0.00 | 81 | 1018.4 |
| 20260906155952 | 63 | 351 | 6.0 | 11.0 | 0.00 | 0.00 | 0.00 | 81 | 1018.4 |
| 20260906155854 | 63 | 335 | 5.0 | 11.0 | 0.00 | 0.00 | 0.00 | 81 | 1018.5 |
| 20260906155815 | 63 | 342 | 4.0 | 11.0 | 0.00 | 0.00 | 0.00 | 81 | 1018.5 |
| 20260906155721 | 63 | 5 | 2.0 | 8.0 | 0.00 | 0.00 | 0.00 | 82 | 1018.5 |
| 20260906155641 | 63 | 5 | 2.0 | 8.0 | 0.00 | 0.00 | 0.00 | 80 | 1018.5 |
| 20260906155513 | 63 | 63 | 3.0 | 8.0 | 0.00 | 0.00 | 0.00 | 81 | 1018.5 |
| 20260906155406 | 63 | 46 | 3.0 | 8.0 | 0.00 | 0.00 | 0.00 | 81 | 1018.5 |
| 20260906155236 | 62 | 351 | 0.0 | 8.0 | 0.00 | 0.00 | 0.00 | 83 | 1018.5 |
| 20260906155137 | 62 | 20 | 0.0 | 8.0 | 0.00 | 0.00 | 0.00 | 83 | 1018.5 |
| 20260906154923 | 62 | 355 | 1.0 | 8.0 | 0.00 | 0.00 | 0.00 | 82 | 1018.5 |
| 20260906154847 | 62 | 327 | 2.0 | 8.0 | 0.00 | 0.00 | 0.00 | 83 | 1018.4 |
| 20260906154729 | 62 | 355 | 4.0 | 8.0 | 0.00 | 0.00 | 0.00 | 82 | 1018.5 |
| 20260906154643 | 62 | 346 | 5.0 | 8.0 | 0.00 | 0.00 | 0.00 | 82 | 1018.5 |
| 20260906154453 | 61 | 327 | 5.0 | 9.0 | 0.00 | 0.00 | 0.00 | 83 | 1018.5 |
| 20260906154415 | 61 | 325 | 4.0 | 9.0 | 0.00 | 0.00 | 0.00 | 83 | 1018.5 |
| 20260906154246 | 61 | 342 | 3.0 | 9.0 | 0.00 | 0.00 | 0.00 | 83 | 1018.5 |
| 20260906154141 | 61 | 336 | 3.0 | 9.0 | 0.00 | 0.00 | 0.00 | 84 | 1018.4 |
| 20260906154026 | 61 | 342 | 4.0 | 9.0 | 0.00 | 0.00 | 0.00 | 83 | 1018.5 |
| 20260906153950 | 61 | 350 | 4.0 | 9.0 | 0.00 | 0.00 | 0.00 | 83 | 1018.5 |
| 20260906153917 | 61 | 333 | 5.0 | 9.0 | 0.00 | 0.00 | 0.00 | 83 | 1018.5 |
| 20260906153819 | 61 | 348 | 6.0 | 9.0 | 0.00 | 0.00 | 0.00 | 83 | 1018.5 |
| 20260906153741 | 61 | 328 | 5.0 | 9.0 | 0.00 | 0.00 | 0.00 | 83 | 1018.5 |
| 20260906153524 | 61 | 340 | 4.0 | 9.0 | 0.00 | 0.00 | 0.00 | 83 | 1018.5 |
| 20260906153426 | 61 | 324 | 4.0 | 9.0 | 0.00 | 0.00 | 0.00 | 83 | 1018.5 |
| 20260906153331 | 61 | 329 | 4.0 | 9.0 | 0.00 | 0.00 | 0.00 | 83 | 1018.5 |
| 20260906153253 | 61 | 342 | 5.0 | 10.0 | 0.00 | 0.00 | 0.00 | 83 | 1018.5 |
| 20260906153216 | 61 | 340 | 5.0 | 10.0 | 0.00 | 0.00 | 0.00 | 83 | 1018.5 |
| 20260906153056 | 61 | 348 | 5.0 | 10.0 | 0.00 | 0.00 | 0.00 | 83 | 1018.5 |
| 20260906153012 | 61 | 341 | 5.0 | 10.0 | 0.00 | 0.00 | 0.00 | 82 | 1018.6 |
| 20260906152734 | 61 | 5 | 6.0 | 10.0 | 0.00 | 0.00 | 0.00 | 83 | 1018.6 |
| 20260906152650 | 61 | 324 | 5.0 | 10.0 | 0.00 | 0.00 | 0.00 | 83 | 1018.6 |
| 20260906152551 | 61 | 5 | 6.0 | 10.0 | 0.00 | 0.00 | 0.00 | 82 | 1018.6 |
| 20260906152512 | 61 | 355 | 5.0 | 10.0 | 0.00 | 0.00 | 0.00 | 82 | 1018.6 |
| 20260906152427 | 61 | 328 | 5.0 | 10.0 | 0.00 | 0.00 | 0.00 | 83 | 1018.6 |
| 20260906152246 | 61 | 360 | 3.0 | 10.0 | 0.00 | 0.00 | 0.00 | 83 | 1018.6 |
| 20260906152148 | 61 | 360 | 5.0 | 10.0 | 0.00 | 0.00 | 0.00 | 83 | 1018.6 |
| 20260906152031 | 61 | 5 | 5.0 | 10.0 | 0.00 | 0.00 | 0.00 | 83 | 1018.6 |
| 20260906151953 | 61 | 360 | 5.0 | 10.0 | 0.00 | 0.00 | 0.00 | 82 | 1018.6 |
| 20260906151814 | 61 | 5 | 7.0 | 10.0 | 0.00 | 0.00 | 0.00 | 83 | 1018.6 |
| 20260906151735 | 61 | 347 | 8.0 | 10.0 | 0.00 | 0.00 | 0.00 | 83 | 1018.6 |
| 20260906151606 | 61 | 335 | 7.0 | 10.0 | 0.00 | 0.00 | 0.00 | 83 | 1018.6 |
| 20260906151533 | 61 | 343 | 7.0 | 10.0 | 0.00 | 0.00 | 0.00 | 83 | 1018.6 |
| 20260906151336 | 61 | 348 | 5.0 | 10.0 | 0.00 | 0.00 | 0.00 | 83 | 1018.6 |
| 20260906151258 | 61 | 360 | 6.0 | 10.0 | 0.00 | 0.00 | 0.00 | 83 | 1018.6 |
| 20260906151202 | 61 | 344 | 6.0 | 10.0 | 0.00 | 0.00 | 0.00 | 83 | 1018.6 |
| 20260906151126 | 61 | 5 | 7.0 | 10.0 | 0.00 | 0.00 | 0.00 | 83 | 1018.6 |
| 20260906150928 | 60 | 360 | 6.0 | 9.0 | 0.00 | 0.00 | 0.00 | 84 | 1018.5 |
| 20260906150830 | 60 | 337 | 5.0 | 9.0 | 0.00 | 0.00 | 0.00 | 84 | 1018.5 |
| 20260906150733 | 60 | 348 | 5.0 | 9.0 | 0.00 | 0.00 | 0.00 | 83 | 1018.5 |
| 20260906150634 | 60 | 337 | 5.0 | 9.0 | 0.00 | 0.00 | 0.00 | 84 | 1018.6 |
| 20260906150601 | 60 | 346 | 5.0 | 9.0 | 0.00 | 0.00 | 0.00 | 84 | 1018.6 |
| 20260906150503 | 60 | 338 | 5.0 | 8.0 | 0.00 | 0.00 | 0.00 | 84 | 1018.6 |
| 20260906150344 | 60 | 351 | 4.0 | 8.0 | 0.00 | 0.00 | 0.00 | 85 | 1018.6 |
| 20260906150228 | 60 | 62 | 3.0 | 10.0 | 0.00 | 0.00 | 0.00 | 85 | 1018.6 |
| 20260906150149 | 60 | 344 | 3.0 | 10.0 | 0.00 | 0.00 | 0.00 | 85 | 1018.6 |
| 20260906145930 | 60 | 344 | 3.0 | 10.0 | 0.00 | 0.00 | 0.00 | 84 | 1018.6 |
| 20260906145853 | 60 | 13 | 3.0 | 10.0 | 0.00 | 0.00 | 0.00 | 85 | 1018.6 |
| 20260906145756 | 60 | 5 | 5.0 | 10.0 | 0.00 | 0.00 | 0.00 | 85 | 1018.7 |
| 20260906145657 | 60 | 355 | 5.0 | 10.0 | 0.00 | 0.00 | 0.00 | 85 | 1018.6 |
| 20260906145619 | 60 | 336 | 5.0 | 10.0 | 0.00 | 0.00 | 0.00 | 85 | 1018.6 |
| 20260906145455 | 60 | 326 | 5.0 | 10.0 | 0.00 | 0.00 | 0.00 | 84 | 1018.7 |
| 20260906145428 | 60 | 355 | 4.0 | 10.0 | 0.00 | 0.00 | 0.00 | 84 | 1018.7 |
| 20260906145227 | 60 | 17 | 5.0 | 10.0 | 0.00 | 0.00 | 0.00 | 85 | 1018.6 |
| 20260906145141 | 60 | 350 | 6.0 | 10.0 | 0.00 | 0.00 | 0.00 | 85 | 1018.6 |
| 20260906145026 | 60 | 350 | 6.0 | 10.0 | 0.00 | 0.00 | 0.00 | 85 | 1018.6 |
| 20260906144948 | 60 | 342 | 6.0 | 10.0 | 0.00 | 0.00 | 0.00 | 85 | 1018.7 |
| 20260906144912 | 60 | 327 | 7.0 | 10.0 | 0.00 | 0.00 | 0.00 | 85 | 1018.6 |
| 20260906144756 | 60 | 346 | 6.0 | 11.0 | 0.00 | 0.00 | 0.00 | 85 | 1018.6 |
| 20260906144718 | 60 | 5 | 6.0 | 11.0 | 0.00 | 0.00 | 0.00 | 85 | 1018.6 |
| 20260906144525 | 60 | 355 | 6.0 | 11.0 | 0.00 | 0.00 | 0.00 | 86 | 1018.6 |
| 20260906144428 | 60 | 348 | 5.0 | 11.0 | 0.00 | 0.00 | 0.00 | 85 | 1018.6 |
| 20260906144332 | 60 | 327 | 4.0 | 11.0 | 0.00 | 0.00 | 0.00 | 86 | 1018.6 |
| 20260906144253 | 60 | 341 | 4.0 | 11.0 | 0.00 | 0.00 | 0.00 | 86 | 1018.6 |
| 20260906144214 | 59 | 340 | 4.0 | 11.0 | 0.00 | 0.00 | 0.00 | 86 | 1018.6 |
| 20260906144119 | 59 | 13 | 4.0 | 11.0 | 0.00 | 0.00 | 0.00 | 87 | 1018.6 |
| 20260906144040 | 59 | 348 | 5.0 | 11.0 | 0.00 | 0.00 | 0.00 | 86 | 1018.6 |
| 20260906143910 | 59 | 351 | 7.0 | 11.0 | 0.00 | 0.00 | 0.00 | 85 | 1018.5 |
| 20260906143824 | 59 | 329 | 5.0 | 10.0 | 0.00 | 0.00 | 0.00 | 86 | 1018.5 |
| 20260906143655 | 59 | 9 | 3.0 | 6.0 | 0.00 | 0.00 | 0.00 | 86 | 1018.4 |
| 20260906143616 | 59 | 13 | 4.0 | 6.0 | 0.00 | 0.00 | 0.00 | 86 | 1018.4 |
| 20260906143424 | 59 | 355 | 2.0 | 6.0 | 0.00 | 0.00 | 0.00 | 87 | 1018.5 |
| 20260906143325 | 59 | 15 | 0.0 | 4.0 | 0.00 | 0.00 | 0.00 | 87 | 1018.4 |
| 20260906143229 | 59 | 332 | 0.0 | 0.0 | 0.00 | 0.00 | 0.00 | 87 | 1018.4 |
| 20260906143130 | 59 | 336 | 0.0 | 0.0 | 0.00 | 0.00 | 0.00 | 87 | 1018.4 |
| 20260906143001 | 59 | 329 | 0.0 | 0.0 | 0.00 | 0.00 | 0.00 | 87 | 1018.4 |
| 20260906142917 | 59 | 360 | 0.0 | 0.0 | 0.00 | 0.00 | 0.00 | 87 | 1018.4 |
| 20260906142747 | 59 | 339 | 0.0 | 0.0 | 0.00 | 0.00 | 0.00 | 86 | 1018.4 |
| 20260906142648 | 59 | 335 | 0.0 | 0.0 | 0.00 | 0.00 | 0.00 | 86 | 1018.4 |
| 20260906142611 | 59 | 319 | 0.0 | 0.0 | 0.00 | 0.00 | 0.00 | 85 | 1018.4 |
| 20260906142435 | 59 | 355 | 0.0 | 0.0 | 0.00 | 0.00 | 0.00 | 86 | 1018.4 |
| 20260906142334 | 59 | 334 | 0.0 | 0.0 | 0.00 | 0.00 | 0.00 | 87 | 1018.4 |
| 20260906142256 | 59 | 330 | 0.0 | 0.0 | 0.00 | 0.00 | 0.00 | 87 | 1018.4 |
| 20260906142219 | 59 | 350 | 0.0 | 0.0 | 0.00 | 0.00 | 0.00 | 87 | 1018.4 |
| 20260906142133 | 59 | 317 | 0.0 | 0.0 | 0.00 | 0.00 | 0.00 | 86 | 1018.4 |
| 20260906142004 | 59 | 348 | 0.0 | 0.0 | 0.00 | 0.00 | 0.00 | 87 | 1018.4 |
| 20260906141844 | 59 | 342 | 0.0 | 0.0 | 0.00 | 0.00 | 0.00 | 87 | 1018.4 |
| 20260906141728 | 59 | 341 | 0.0 | 0.0 | 0.00 | 0.00 | 0.00 | 86 | 1018.4 |
| 20260906141649 | 59 | 355 | 0.0 | 0.0 | 0.00 | 0.00 | 0.00 | 86 | 1018.4 |
| 20260906141605 | 59 | 5 | 0.0 | 0.0 | 0.00 | 0.00 | 0.00 | 86 | 1018.4 |
| 20260906141527 | 59 | 13 | 0.0 | 0.0 | 0.00 | 0.00 | 0.00 | 86 | 1018.4 |
| 20260906141338 | 59 | 5 | 0.0 | 0.0 | 0.00 | 0.00 | 0.00 | 86 | 1018.4 |
| 20260906141257 | 59 | 351 | 0.0 | 0.0 | 0.00 | 0.00 | 0.00 | 87 | 1018.4 |
| 20260906141106 | 59 | 360 | 0.0 | 0.0 | 0.00 | 0.00 | 0.00 | 86 | 1018.4 |
| 20260906141027 | 59 | 339 | 0.0 | 0.0 | 0.00 | 0.00 | 0.00 | 87 | 1018.4 |
| 20260906140831 | 59 | 360 | 0.0 | 0.0 | 0.00 | 0.00 | 0.00 | 87 | 1018.3 |
| 20260906140752 | 59 | 355 | 0.0 | 0.0 | 0.00 | 0.00 | 0.00 | 87 | 1018.4 |
| 20260906140656 | 59 | 18 | 0.0 | 0.0 | 0.00 | 0.00 | 0.00 | 87 | 1018.4 |
| 20260906140618 | 59 | 333 | 0.0 | 0.0 | 0.00 | 0.00 | 0.00 | 87 | 1018.3 |
| 20260906140449 | 59 | 349 | 0.0 | 0.0 | 0.00 | 0.00 | 0.00 | 88 | 1018.4 |
| 20260906140403 | 59 | 350 | 0.0 | 0.0 | 0.00 | 0.00 | 0.00 | 89 | 1018.4 |
| 20260906140211 | 59 | 331 | 0.0 | 0.0 | 0.00 | 0.00 | 0.00 | 88 | 1018.4 |
| 20260906140132 | 59 | 334 | 0.0 | 0.0 | 0.00 | 0.00 | 0.00 | 88 | 1018.4 |
| 20260906140005 | 59 | 319 | 0.0 | 0.0 | 0.00 | 0.00 | 0.00 | 88 | 1018.3 |
| 20260906135923 | 59 | 339 | 0.0 | 0.0 | 0.00 | 0.00 | 0.00 | 88 | 1018.3 |
| 20260906135733 | 58 | 319 | 0.0 | 0.0 | 0.00 | 0.00 | 0.00 | 90 | 1018.3 |
| 20260906135629 | 58 | 337 | 0.0 | 0.0 | 0.00 | 0.00 | 0.00 | 90 | 1018.4 |
| 20260906135524 | 58 | 355 | 0.0 | 0.0 | 0.00 | 0.00 | 0.00 | 90 | 1018.4 |
| 20260906135445 | 58 | 348 | 0.0 | 0.0 | 0.00 | 0.00 | 0.00 | 89 | 1018.3 |
| 20260906135418 | 58 | 320 | 0.0 | 0.0 | 0.00 | 0.00 | 0.00 | 90 | 1018.4 |
| 20260906135242 | 58 | 315 | 0.0 | 0.0 | 0.00 | 0.00 | 0.00 | 88 | 1018.4 |
| 20260906135143 | 58 | 319 | 0.0 | 0.0 | 0.00 | 0.00 | 0.00 | 89 | 1018.3 |
| 20260906135032 | 58 | 346 | 0.0 | 0.0 | 0.00 | 0.00 | 0.00 | 89 | 1018.4 |
| 20260906134955 | 58 | 320 | 0.0 | 0.0 | 0.00 | 0.00 | 0.00 | 89 | 1018.3 |
| 20260906134917 | 58 | 313 | 0.0 | 0.0 | 0.00 | 0.00 | 0.00 | 90 | 1018.4 |
| 20260906134821 | 58 | 323 | 0.0 | 0.0 | 0.00 | 0.00 | 0.00 | 89 | 1018.4 |
| 20260906134742 | 58 | 323 | 0.0 | 0.0 | 0.00 | 0.00 | 0.00 | 89 | 1018.3 |
| 20260906134611 | 58 | 346 | 0.0 | 0.0 | 0.00 | 0.00 | 0.00 | 89 | 1018.4 |
| 20260906134525 | 57 | 300 | 0.0 | 0.0 | 0.00 | 0.00 | 0.00 | 89 | 1018.4 |
| 20260906134336 | 57 | 344 | 0.0 | 0.0 | 0.00 | 0.00 | 0.00 | 90 | 1018.4 |
| 20260906134249 | 57 | 331 | 0.0 | 0.0 | 0.00 | 0.00 | 0.00 | 89 | 1018.4 |
| 20260906134119 | 57 | 325 | 0.0 | 0.0 | 0.00 | 0.00 | 0.00 | 90 | 1018.4 |
| 20260906134041 | 57 | 350 | 0.0 | 0.0 | 0.00 | 0.00 | 0.00 | 90 | 1018.4 |
| 20260906133934 | 57 | 326 | 0.0 | 0.0 | 0.00 | 0.00 | 0.00 | 90 | 1018.3 |
| 20260906133808 | 57 | 300 | 0.0 | 0.0 | 0.00 | 0.00 | 0.00 | 89 | 1018.3 |
| 20260906133729 | 57 | 330 | 0.0 | 0.0 | 0.00 | 0.00 | 0.00 | 89 | 1018.3 |
| 20260906133553 | 57 | 310 | 0.0 | 0.0 | 0.00 | 0.00 | 0.00 | 89 | 1018.3 |
| 20260906133515 | 57 | 317 | 0.0 | 0.0 | 0.00 | 0.00 | 0.00 | 89 | 1018.2 |
| 20260906133325 | 57 | 332 | 0.0 | 0.0 | 0.00 | 0.00 | 0.00 | 89 | 1018.2 |
| 20260906133239 | 57 | 321 | 0.0 | 0.0 | 0.00 | 0.00 | 0.00 | 89 | 1018.2 |
| 20260906133110 | 57 | 330 | 0.0 | 0.0 | 0.00 | 0.00 | 0.00 | 89 | 1018.2 |
| 20260906133031 | 57 | 342 | 0.0 | 0.0 | 0.00 | 0.00 | 0.00 | 89 | 1018.2 |
| 20260906132835 | 57 | 324 | 0.0 | 0.0 | 0.00 | 0.00 | 0.00 | 90 | 1018.2 |
| 20260906132758 | 57 | 337 | 0.0 | 0.0 | 0.00 | 0.00 | 0.00 | 89 | 1018.2 |
| 20260906132700 | 57 | 328 | 0.0 | 0.0 | 0.00 | 0.00 | 0.00 | 89 | 1018.3 |
| 20260906132625 | 57 | 338 | 0.0 | 0.0 | 0.00 | 0.00 | 0.00 | 89 | 1018.3 |
| 20260906132431 | 57 | 323 | 0.0 | 0.0 | 0.00 | 0.00 | 0.00 | 89 | 1018.2 |
| 20260906132331 | 57 | 317 | 0.0 | 0.0 | 0.00 | 0.00 | 0.00 | 89 | 1018.2 |
| 20260906132236 | 57 | 332 | 0.0 | 0.0 | 0.00 | 0.00 | 0.00 | 89 | 1018.2 |
| 20260906132157 | 57 | 291 | 0.0 | 0.0 | 0.00 | 0.00 | 0.00 | 89 | 1018.2 |
| 20260906132008 | 57 | 314 | 0.0 | 0.0 | 0.00 | 0.00 | 0.00 | 89 | 1018.2 |
| 20260906131923 | 57 | 319 | 0.0 | 0.0 | 0.00 | 0.00 | 0.00 | 89 | 1018.2 |
| 20260906131754 | 57 | 329 | 0.0 | 0.0 | 0.00 | 0.00 | 0.00 | 89 | 1018.2 |
| 20260906131715 | 57 | 323 | 0.0 | 0.0 | 0.00 | 0.00 | 0.00 | 89 | 1018.2 |
| 20260906131546 | 57 | 317 | 0.0 | 0.0 | 0.00 | 0.00 | 0.00 | 89 | 1018.2 |
| 20260906131446 | 57 | 321 | 0.0 | 0.0 | 0.00 | 0.00 | 0.00 | 89 | 1018.2 |
| 20260906131407 | 57 | 323 | 0.0 | 0.0 | 0.00 | 0.00 | 0.00 | 89 | 1018.1 |
| 20260906131312 | 57 | 332 | 0.0 | 0.0 | 0.00 | 0.00 | 0.00 | 89 | 1018.1 |
| 20260906131233 | 57 | 316 | 0.0 | 0.0 | 0.00 | 0.00 | 0.00 | 89 | 1018.1 |
| 20260906131102 | 57 | 337 | 0.0 | 0.0 | 0.00 | 0.00 | 0.00 | 88 | 1018.1 |
| 20260906131018 | 57 | 304 | 0.0 | 0.0 | 0.00 | 0.00 | 0.00 | 89 | 1018.1 |
| 20260906130736 | 58 | 302 | 0.0 | 0.0 | 0.00 | 0.00 | 0.00 | 88 | 1018.1 |
| 20260906130650 | 58 | 344 | 0.0 | 0.0 | 0.00 | 0.00 | 0.00 | 88 | 1018.0 |
| 20260906130520 | 58 | 335 | 0.0 | 0.0 | 0.00 | 0.00 | 0.00 | 89 | 1018.0 |
| 20260906130441 | 58 | 355 | 0.0 | 0.0 | 0.00 | 0.00 | 0.00 | 88 | 1018.0 |
| 20260906130305 | 58 | 318 | 0.0 | 0.0 | 0.00 | 0.00 | 0.00 | 88 | 1018.1 |
| 20260906130227 | 58 | 316 | 0.0 | 0.0 | 0.00 | 0.00 | 0.00 | 88 | 1018.1 |
| 20260906130041 | 58 | 333 | 0.0 | 0.0 | 0.00 | 0.00 | 0.00 | 88 | 1018.0 |
| 20260906125936 | 58 | 323 | 0.0 | 0.0 | 0.00 | 0.00 | 0.00 | 88 | 1018.0 |
| 20260906125859 | 58 | 293 | 0.0 | 0.0 | 0.00 | 0.00 | 0.00 | 88 | 1018.0 |
| 20260906125723 | 58 | 336 | 0.0 | 0.0 | 0.00 | 0.00 | 0.00 | 88 | 1018.0 |
| 20260906125638 | 58 | 350 | 0.0 | 0.0 | 0.00 | 0.00 | 0.00 | 89 | 1018.0 |
| 20260906125541 | 58 | 329 | 0.0 | 0.0 | 0.00 | 0.00 | 0.00 | 89 | 1018.0 |
| 20260906125454 | 58 | 355 | 0.0 | 0.0 | 0.00 | 0.00 | 0.00 | 89 | 1018.0 |
| 20260906125415 | 58 | 336 | 0.0 | 0.0 | 0.00 | 0.00 | 0.00 | 89 | 1018.0 |
| 20260906125223 | 58 | 337 | 0.0 | 0.0 | 0.00 | 0.00 | 0.00 | 90 | 1018.0 |
| 20260906125127 | 58 | 336 | 0.0 | 0.0 | 0.00 | 0.00 | 0.00 | 90 | 1017.9 |
| 20260906125030 | 58 | 330 | 0.0 | 0.0 | 0.00 | 0.00 | 0.00 | 90 | 1018.0 |
| 20260906124931 | 58 | 355 | 0.0 | 0.0 | 0.00 | 0.00 | 0.00 | 90 | 1018.0 |
| 20260906124743 | 58 | 351 | 0.0 | 0.0 | 0.00 | 0.00 | 0.00 | 90 | 1017.9 |
| 20260906124636 | 58 | 12 | 0.0 | 0.0 | 0.00 | 0.00 | 0.00 | 89 | 1017.9 |
| 20260906124558 | 58 | 30 | 0.0 | 0.0 | 0.00 | 0.00 | 0.00 | 89 | 1017.9 |
| 20260906124512 | 58 | 360 | 0.0 | 0.0 | 0.00 | 0.00 | 0.00 | 89 | 1017.9 |
| 20260906124433 | 58 | 28 | 0.0 | 0.0 | 0.00 | 0.00 | 0.00 | 89 | 1017.9 |
| 20260906124256 | 58 | 16 | 0.0 | 0.0 | 0.00 | 0.00 | 0.00 | 90 | 1017.9 |
| 20260906124149 | 57 | 13 | 0.0 | 0.0 | 0.00 | 0.00 | 0.00 | 90 | 1017.9 |
| 20260906124019 | 57 | 320 | 0.0 | 0.0 | 0.00 | 0.00 | 0.00 | 90 | 1018.0 |
| 20260906123859 | 57 | 350 | 0.0 | 0.0 | 0.00 | 0.00 | 0.00 | 90 | 1018.0 |
| 20260906123801 | 57 | 355 | 0.0 | 0.0 | 0.00 | 0.00 | 0.00 | 89 | 1018.0 |
| 20260906123642 | 57 | 22 | 0.0 | 0.0 | 0.00 | 0.00 | 0.00 | 89 | 1018.0 |
| 20260906123525 | 57 | 355 | 0.0 | 0.0 | 0.00 | 0.00 | 0.00 | 89 | 1018.0 |
| 20260906123448 | 57 | 346 | 0.0 | 0.0 | 0.00 | 0.00 | 0.00 | 89 | 1018.0 |
| 20260906123228 | 57 | 355 | 0.0 | 0.0 | 0.00 | 0.00 | 0.00 | 89 | 1018.0 |
| 20260906123135 | 57 | 15 | 0.0 | 0.0 | 0.00 | 0.00 | 0.00 | 89 | 1018.0 |
| 20260906123038 | 57 | 80 | 0.0 | 0.0 | 0.00 | 0.00 | 0.00 | 89 | 1018.0 |
| 20260906123000 | 57 | 18 | 0.0 | 0.0 | 0.00 | 0.00 | 0.00 | 89 | 1018.0 |
| 20260906122923 | 57 | 348 | 0.0 | 0.0 | 0.00 | 0.00 | 0.00 | 89 | 1018.0 |
| 20260906122805 | 57 | 355 | 0.0 | 0.0 | 0.00 | 0.00 | 0.00 | 90 | 1018.1 |
| 20260906122725 | 57 | 338 | 0.0 | 0.0 | 0.00 | 0.00 | 0.00 | 90 | 1018.1 |
| 20260906122557 | 57 | 5 | 0.0 | 0.0 | 0.00 | 0.00 | 0.00 | 90 | 1018.0 |
| 20260906122450 | 57 | 9 | 0.0 | 0.0 | 0.00 | 0.00 | 0.00 | 90 | 1018.0 |
| 20260906122301 | 58 | 346 | 0.0 | 0.0 | 0.00 | 0.00 | 0.00 | 89 | 1018.0 |
| 20260906122222 | 57 | 328 | 0.0 | 0.0 | 0.00 | 0.00 | 0.00 | 89 | 1018.0 |
| 20260906122025 | 57 | 349 | 0.0 | 0.0 | 0.00 | 0.00 | 0.00 | 89 | 1017.9 |
| 20260906121933 | 58 | 355 | 0.0 | 0.0 | 0.00 | 0.00 | 0.00 | 89 | 1017.9 |
| 20260906121833 | 58 | 327 | 0.0 | 0.0 | 0.00 | 0.00 | 0.00 | 90 | 1017.9 |
| 20260906121754 | 57 | 333 | 0.0 | 0.0 | 0.00 | 0.00 | 0.00 | 90 | 1017.9 |
| 20260906121715 | 58 | 355 | 0.0 | 0.0 | 0.00 | 0.00 | 0.00 | 90 | 1017.9 |
| 20260906121536 | 57 | 355 | 0.0 | 0.0 | 0.00 | 0.00 | 0.00 | 90 | 1017.9 |
| 20260906121458 | 57 | 30 | 0.0 | 0.0 | 0.00 | 0.00 | 0.00 | 90 | 1017.8 |
| 20260906121340 | 57 | 331 | 0.0 | 0.0 | 0.00 | 0.00 | 0.00 | 90 | 1017.7 |
| 20260906121303 | 57 | 334 | 0.0 | 0.0 | 0.00 | 0.00 | 0.00 | 90 | 1017.7 |
| 20260906121235 | 57 | 355 | 0.0 | 0.0 | 0.00 | 0.00 | 0.00 | 90 | 1017.7 |
| 20260906121100 | 57 | 355 | 0.0 | 0.0 | 0.00 | 0.00 | 0.00 | 90 | 1017.7 |
| 20260906121031 | 57 | 343 | 0.0 | 0.0 | 0.00 | 0.00 | 0.00 | 90 | 1017.7 |
| 20260906120901 | 57 | 350 | 0.0 | 0.0 | 0.00 | 0.00 | 0.00 | 90 | 1017.7 |
| 20260906120728 | 57 | 355 | 0.0 | 0.0 | 0.00 | 0.00 | 0.00 | 90 | 1017.7 |
| 20260906120649 | 57 | 338 | 0.0 | 0.0 | 0.00 | 0.00 | 0.00 | 90 | 1017.7 |
| 20260906120513 | 57 | 355 | 0.0 | 0.0 | 0.00 | 0.00 | 0.00 | 91 | 1017.7 |
| 20260906120435 | 57 | 5 | 0.0 | 0.0 | 0.00 | 0.00 | 0.00 | 91 | 1017.7 |
| 20260906120253 | 57 | 337 | 0.0 | 0.0 | 0.00 | 0.00 | 0.00 | 91 | 1017.7 |
| 20260906120154 | 57 | 322 | 0.0 | 0.0 | 0.00 | 0.00 | 0.00 | 91 | 1017.7 |
| 20260906120038 | 57 | 346 | 0.0 | 0.0 | 0.00 | 0.00 | 0.00 | 91 | 1017.7 |
| 20260906120012 | 57 | 329 | 0.0 | 0.0 | 0.00 | 0.00 | 0.00 | 91 | 1017.7 |
| 20260906115853 | 57 | 324 | 0.0 | 0.0 | 0.00 | 0.00 | 0.00 | 90 | 1017.7 |
| 20260906115815 | 57 | 342 | 0.0 | 0.0 | 0.00 | 0.00 | 0.00 | 91 | 1017.6 |
| 20260906115644 | 57 | 325 | 0.0 | 0.0 | 0.00 | 0.00 | 0.00 | 91 | 1017.6 |
| 20260906115524 | 57 | 360 | 0.0 | 0.0 | 0.00 | 0.00 | 0.00 | 90 | 1017.6 |
| 20260906115427 | 57 | 350 | 0.0 | 0.0 | 0.00 | 0.00 | 0.00 | 90 | 1017.6 |
| 20260906115350 | 57 | 325 | 0.0 | 0.0 | 0.00 | 0.00 | 0.00 | 91 | 1017.6 |
| 20260906115310 | 57 | 328 | 0.0 | 0.0 | 0.00 | 0.00 | 0.00 | 91 | 1017.6 |
| 20260906115213 | 57 | 323 | 0.0 | 0.0 | 0.00 | 0.00 | 0.00 | 91 | 1017.6 |
| 20260906115133 | 57 | 345 | 0.0 | 0.0 | 0.00 | 0.00 | 0.00 | 91 | 1017.6 |
| 20260906115005 | 57 | 344 | 0.0 | 0.0 | 0.00 | 0.00 | 0.00 | 91 | 1017.6 |
| 20260906114858 | 57 | 338 | 0.0 | 0.0 | 0.00 | 0.00 | 0.00 | 91 | 1017.6 |
| 20260906114727 | 57 | 355 | 0.0 | 0.0 | 0.00 | 0.00 | 0.00 | 91 | 1017.6 |
| 20260906114629 | 57 | 5 | 0.0 | 0.0 | 0.00 | 0.00 | 0.00 | 91 | 1017.6 |
| 20260906114437 | 57 | 326 | 0.0 | 0.0 | 0.00 | 0.00 | 0.00 | 91 | 1017.5 |
| 20260906114338 | 57 | 327 | 0.0 | 0.0 | 0.00 | 0.00 | 0.00 | 91 | 1017.5 |
| 20260906114223 | 57 | 350 | 0.0 | 0.0 | 0.00 | 0.00 | 0.00 | 91 | 1017.5 |
| 20260906114145 | 57 | 360 | 0.0 | 0.0 | 0.00 | 0.00 | 0.00 | 91 | 1017.5 |
| 20260906113927 | 57 | 327 | 0.0 | 0.0 | 0.00 | 0.00 | 0.00 | 91 | 1017.5 |
| 20260906113851 | 57 | 317 | 0.0 | 0.0 | 0.00 | 0.00 | 0.00 | 91 | 1017.6 |
| 20260906113754 | 57 | 355 | 0.0 | 0.0 | 0.00 | 0.00 | 0.00 | 91 | 1017.5 |
| 20260906113717 | 57 | 345 | 0.0 | 0.0 | 0.00 | 0.00 | 0.00 | 91 | 1017.5 |
| 20260906113546 | 57 | 13 | 0.0 | 0.0 | 0.00 | 0.00 | 0.00 | 92 | 1017.4 |
| 20260906113424 | 57 | 326 | 0.0 | 0.0 | 0.00 | 0.00 | 0.00 | 92 | 1017.4 |
| 20260906113327 | 57 | 14 | 0.0 | 0.0 | 0.00 | 0.00 | 0.00 | 92 | 1017.4 |
| 20260906113248 | 57 | 21 | 0.0 | 0.0 | 0.00 | 0.00 | 0.00 | 92 | 1017.4 |
| 20260906113117 | 57 | 342 | 0.0 | 0.0 | 0.00 | 0.00 | 0.00 | 92 | 1017.4 |
| 20260906113020 | 57 | 342 | 0.0 | 0.0 | 0.00 | 0.00 | 0.00 | 92 | 1017.4 |
| 20260906112933 | 57 | 335 | 0.0 | 0.0 | 0.00 | 0.00 | 0.00 | 92 | 1017.3 |
| 20260906112744 | 57 | 332 | 0.0 | 0.0 | 0.00 | 0.00 | 0.00 | 92 | 1017.3 |
| 20260906112640 | 57 | 340 | 0.0 | 0.0 | 0.00 | 0.00 | 0.00 | 92 | 1017.3 |
| 20260906112523 | 57 | 342 | 0.0 | 0.0 | 0.00 | 0.00 | 0.00 | 92 | 1017.3 |
| 20260906112448 | 57 | 343 | 0.0 | 0.0 | 0.00 | 0.00 | 0.00 | 92 | 1017.3 |
| 20260906112411 | 57 | 344 | 0.0 | 0.0 | 0.00 | 0.00 | 0.00 | 92 | 1017.3 |
| 20260906112315 | 57 | 346 | 0.0 | 0.0 | 0.00 | 0.00 | 0.00 | 92 | 1017.3 |
| 20260906112235 | 57 | 335 | 0.0 | 0.0 | 0.00 | 0.00 | 0.00 | 92 | 1017.3 |
| 20260906112106 | 57 | 5 | 0.0 | 0.0 | 0.00 | 0.00 | 0.00 | 92 | 1017.2 |
| 20260906112031 | 57 | 321 | 0.0 | 0.0 | 0.00 | 0.00 | 0.00 | 92 | 1017.2 |
| 20260906111902 | 57 | 333 | 0.0 | 0.0 | 0.00 | 0.00 | 0.00 | 92 | 1017.3 |
| 20260906111823 | 57 | 340 | 0.0 | 0.0 | 0.00 | 0.00 | 0.00 | 92 | 1017.3 |
| 20260906111627 | 57 | 348 | 0.0 | 0.0 | 0.00 | 0.00 | 0.00 | 92 | 1017.3 |
| 20260906111550 | 57 | 346 | 0.0 | 0.0 | 0.00 | 0.00 | 0.00 | 92 | 1017.2 |
| 20260906111434 | 57 | 331 | 0.0 | 0.0 | 0.00 | 0.00 | 0.00 | 92 | 1017.2 |
| 20260906111342 | 56 | 347 | 0.0 | 0.0 | 0.00 | 0.00 | 0.00 | 92 | 1017.2 |
| 20260906111235 | 57 | 329 | 0.0 | 0.0 | 0.00 | 0.00 | 0.00 | 92 | 1017.2 |
| 20260906111158 | 57 | 310 | 0.0 | 0.0 | 0.00 | 0.00 | 0.00 | 92 | 1017.2 |
| 20260906111114 | 57 | 335 | 0.0 | 0.0 | 0.00 | 0.00 | 0.00 | 92 | 1017.2 |
| 20260906110924 | 57 | 5 | 0.0 | 0.0 | 0.00 | 0.00 | 0.00 | 92 | 1017.2 |
| 20260906110838 | 57 | 319 | 0.0 | 0.0 | 0.00 | 0.00 | 0.00 | 92 | 1017.2 |
| 20260906110708 | 57 | 336 | 0.0 | 0.0 | 0.00 | 0.00 | 0.00 | 92 | 1017.2 |
| 20260906110629 | 57 | 329 | 0.0 | 0.0 | 0.00 | 0.00 | 0.00 | 92 | 1017.2 |
| 20260906110434 | 57 | 319 | 0.0 | 0.0 | 0.00 | 0.00 | 0.00 | 92 | 1017.1 |
| 20260906110359 | 57 | 310 | 0.0 | 0.0 | 0.00 | 0.00 | 0.00 | 92 | 1017.0 |
| 20260906110241 | 57 | 313 | 0.0 | 0.0 | 0.00 | 0.00 | 0.00 | 91 | 1017.0 |
| 20260906110125 | 57 | 328 | 0.0 | 0.0 | 0.00 | 0.00 | 0.00 | 92 | 1017.0 |
| 20260906110045 | 57 | 319 | 0.0 | 0.0 | 0.00 | 0.00 | 0.00 | 92 | 1017.0 |
| 20260906110007 | 57 | 314 | 0.0 | 0.0 | 0.00 | 0.00 | 0.00 | 92 | 1017.0 |
| 20260906105908 | 57 | 333 | 0.0 | 0.0 | 0.00 | 0.00 | 0.00 | 92 | 1017.0 |
| 20260906105823 | 57 | 319 | 0.0 | 0.0 | 0.00 | 0.00 | 0.00 | 92 | 1017.0 |
| 20260906105634 | 57 | 345 | 0.0 | 0.0 | 0.00 | 0.00 | 0.00 | 91 | 1016.9 |
| 20260906105530 | 57 | 321 | 0.0 | 0.0 | 0.00 | 0.00 | 0.00 | 91 | 1016.9 |
| 20260906105455 | 57 | 323 | 0.0 | 0.0 | 0.00 | 0.00 | 0.00 | 92 | 1016.9 |
| 20260906105338 | 57 | 329 | 0.0 | 0.0 | 0.00 | 0.00 | 0.00 | 92 | 1016.8 |
| 20260906105301 | 57 | 331 | 0.0 | 0.0 | 0.00 | 0.00 | 0.00 | 92 | 1016.8 |
| 20260906105124 | 57 | 315 | 0.0 | 0.0 | 0.00 | 0.00 | 0.00 | 92 | 1016.8 |
| 20260906105044 | 57 | 302 | 0.0 | 0.0 | 0.00 | 0.00 | 0.00 | 92 | 1016.8 |
| 20260906104927 | 57 | 331 | 0.0 | 0.0 | 0.00 | 0.00 | 0.00 | 92 | 1016.7 |
| 20260906104849 | 57 | 315 | 0.0 | 0.0 | 0.00 | 0.00 | 0.00 | 92 | 1016.8 |
| 20260906104718 | 57 | 329 | 0.0 | 0.0 | 0.00 | 0.00 | 0.00 | 92 | 1016.8 |
| 20260906104633 | 57 | 338 | 0.0 | 0.0 | 0.00 | 0.00 | 0.00 | 92 | 1016.8 |
| 20260906104502 | 57 | 342 | 0.0 | 0.0 | 0.00 | 0.00 | 0.00 | 92 | 1016.8 |
| 20260906104403 | 57 | 342 | 0.0 | 0.0 | 0.00 | 0.00 | 0.00 | 92 | 1016.8 |
| 20260906104340 | 57 | 342 | 0.0 | 0.0 | 0.00 | 0.00 | 0.00 | 92 | 1016.8 |
| 20260906104145 | 57 | 338 | 0.0 | 0.0 | 0.00 | 0.00 | 0.00 | 92 | 1016.7 |
| 20260906104106 | 57 | 331 | 0.0 | 0.0 | 0.00 | 0.00 | 0.00 | 92 | 1016.7 |
| 20260906104010 | 57 | 339 | 0.0 | 0.0 | 0.00 | 0.00 | 0.00 | 92 | 1016.7 |
| 20260906103932 | 57 | 339 | 0.0 | 0.0 | 0.00 | 0.00 | 0.00 | 92 | 1016.7 |
| 20260906103802 | 57 | 342 | 0.0 | 0.0 | 0.00 | 0.00 | 0.00 | 91 | 1016.7 |
| 20260906103716 | 57 | 325 | 0.0 | 0.0 | 0.00 | 0.00 | 0.00 | 91 | 1016.7 |
| 20260906103528 | 57 | 331 | 0.0 | 0.0 | 0.00 | 0.00 | 0.00 | 92 | 1016.7 |
| 20260906103422 | 57 | 331 | 0.0 | 0.0 | 0.00 | 0.00 | 0.00 | 91 | 1016.7 |
| 20260906103345 | 57 | 321 | 0.0 | 0.0 | 0.00 | 0.00 | 0.00 | 92 | 1016.7 |
| 20260906103242 | 57 | 325 | 0.0 | 0.0 | 0.00 | 0.00 | 0.00 | 92 | 1016.7 |
| 20260906103126 | 57 | 317 | 0.0 | 0.0 | 0.00 | 0.00 | 0.00 | 92 | 1016.7 |
| 20260906103027 | 57 | 325 | 0.0 | 0.0 | 0.00 | 0.00 | 0.00 | 92 | 1016.7 |
| 20260906102951 | 57 | 334 | 0.0 | 0.0 | 0.00 | 0.00 | 0.00 | 92 | 1016.7 |
| 20260906102852 | 57 | 333 | 0.0 | 0.0 | 0.00 | 0.00 | 0.00 | 92 | 1016.7 |
| 20260906102814 | 57 | 342 | 0.0 | 0.0 | 0.00 | 0.00 | 0.00 | 92 | 1016.6 |
| 20260906102715 | 57 | 342 | 0.0 | 0.0 | 0.00 | 0.00 | 0.00 | 92 | 1016.7 |
| 20260906102622 | 57 | 349 | 0.0 | 0.0 | 0.00 | 0.00 | 0.00 | 91 | 1016.7 |
| 20260906102543 | 57 | 323 | 0.0 | 0.0 | 0.00 | 0.00 | 0.00 | 92 | 1016.6 |
| 20260906102414 | 57 | 17 | 0.0 | 0.0 | 0.00 | 0.00 | 0.00 | 91 | 1016.7 |
| 20260906102331 | 57 | 326 | 0.0 | 0.0 | 0.00 | 0.00 | 0.00 | 92 | 1016.7 |
| 20260906102202 | 57 | 360 | 0.0 | 0.0 | 0.00 | 0.00 | 0.00 | 92 | 1016.7 |
| 20260906102124 | 57 | 336 | 0.0 | 0.0 | 0.00 | 0.00 | 0.00 | 92 | 1016.7 |
| 20260906101955 | 57 | 322 | 0.0 | 0.0 | 0.00 | 0.00 | 0.00 | 91 | 1016.6 |
| 20260906101848 | 57 | 342 | 0.0 | 0.0 | 0.00 | 0.00 | 0.00 | 91 | 1016.7 |
| 20260906101708 | 57 | 330 | 0.0 | 0.0 | 0.00 | 0.00 | 0.00 | 91 | 1016.6 |
| 20260906101608 | 57 | 316 | 0.0 | 0.0 | 0.00 | 0.00 | 0.00 | 91 | 1016.6 |
| 20260906101512 | 57 | 350 | 0.0 | 0.0 | 0.00 | 0.00 | 0.00 | 91 | 1016.6 |
| 20260906101434 | 57 | 350 | 0.0 | 0.0 | 0.00 | 0.00 | 0.00 | 91 | 1016.6 |
| 20260906101306 | 57 | 325 | 0.0 | 0.0 | 0.00 | 0.00 | 0.00 | 91 | 1016.6 |
| 20260906101221 | 57 | 348 | 0.0 | 0.0 | 0.00 | 0.00 | 0.00 | 91 | 1016.6 |
| 20260906101031 | 57 | 334 | 0.0 | 0.0 | 0.00 | 0.00 | 0.00 | 91 | 1016.6 |
| 20260906100950 | 57 | 355 | 0.0 | 0.0 | 0.00 | 0.00 | 0.00 | 91 | 1016.6 |
| 20260906100819 | 57 | 329 | 0.0 | 0.0 | 0.00 | 0.00 | 0.00 | 91 | 1016.6 |
| 20260906100739 | 57 | 324 | 0.0 | 0.0 | 0.00 | 0.00 | 0.00 | 91 | 1016.6 |
| 20260906100610 | 57 | 348 | 0.0 | 0.0 | 0.00 | 0.00 | 0.00 | 91 | 1016.6 |
| 20260906100424 | 57 | 324 | 0.0 | 0.0 | 0.00 | 0.00 | 0.00 | 91 | 1016.6 |
| 20260906100326 | 57 | 333 | 0.0 | 0.0 | 0.00 | 0.00 | 0.00 | 91 | 1016.6 |
| 20260906100247 | 57 | 330 | 0.0 | 0.0 | 0.00 | 0.00 | 0.00 | 91 | 1016.6 |
| 20260906100006 | 57 | 331 | 0.0 | 0.0 | 0.00 | 0.00 | 0.00 | 91 | 1016.6 |
| 20260906095839 | 57 | 338 | 0.0 | 0.0 | 0.00 | 0.00 | 0.00 | 91 | 1016.6 |
| 20260906095810 | 57 | 329 | 0.0 | 0.0 | 0.00 | 0.00 | 0.00 | 92 | 1016.6 |
| 20260906095719 | 57 | 342 | 0.0 | 0.0 | 0.00 | 0.00 | 0.00 | 91 | 1016.6 |
| 20260906095640 | 57 | 342 | 0.0 | 0.0 | 0.00 | 0.00 | 0.00 | 92 | 1016.6 |
| 20260906095508 | 57 | 355 | 0.0 | 0.0 | 0.00 | 0.00 | 0.00 | 91 | 1016.4 |
| 20260906095421 | 57 | 334 | 0.0 | 0.0 | 0.00 | 0.00 | 0.00 | 92 | 1016.4 |
| 20260906095231 | 57 | 344 | 0.0 | 0.0 | 0.00 | 0.00 | 0.00 | 92 | 1016.4 |
| 20260906095146 | 57 | 331 | 0.0 | 0.0 | 0.00 | 0.00 | 0.00 | 91 | 1016.4 |
| 20260906094956 | 57 | 341 | 0.0 | 0.0 | 0.00 | 0.00 | 0.00 | 91 | 1016.4 |
| 20260906094917 | 57 | 340 | 0.0 | 0.0 | 0.00 | 0.00 | 0.00 | 91 | 1016.4 |
| 20260906094759 | 57 | 341 | 0.0 | 0.0 | 0.00 | 0.00 | 0.00 | 91 | 1016.4 |
| 20260906094722 | 57 | 355 | 0.0 | 0.0 | 0.00 | 0.00 | 0.00 | 91 | 1016.4 |
| 20260906094643 | 57 | 360 | 0.0 | 0.0 | 0.00 | 0.00 | 0.00 | 91 | 1016.4 |
| 20260906094515 | 57 | 347 | 0.0 | 0.0 | 0.00 | 0.00 | 0.00 | 91 | 1016.4 |
| 20260906094433 | 57 | 349 | 0.0 | 0.0 | 0.00 | 0.00 | 0.00 | 91 | 1016.4 |
| 20260906094244 | 57 | 351 | 0.0 | 0.0 | 0.00 | 0.00 | 0.00 | 91 | 1016.4 |
| 20260906094158 | 57 | 355 | 0.0 | 0.0 | 0.00 | 0.00 | 0.00 | 91 | 1016.4 |
| 20260906094007 | 57 | 350 | 0.0 | 0.0 | 0.00 | 0.00 | 0.00 | 91 | 1016.3 |
| 20260906093930 | 57 | 337 | 0.0 | 0.0 | 0.00 | 0.00 | 0.00 | 91 | 1016.3 |
| 20260906093733 | 57 | 330 | 0.0 | 0.0 | 0.00 | 0.00 | 0.00 | 91 | 1016.2 |
| 20260906093654 | 57 | 12 | 0.0 | 0.0 | 0.00 | 0.00 | 0.00 | 91 | 1016.2 |
| 20260906093558 | 57 | 355 | 0.0 | 0.0 | 0.00 | 0.00 | 0.00 | 91 | 1016.3 |
| 20260906093440 | 57 | 12 | 0.0 | 0.0 | 0.00 | 0.00 | 0.00 | 91 | 1016.2 |
| 20260906093341 | 57 | 336 | 0.0 | 0.0 | 0.00 | 0.00 | 0.00 | 91 | 1016.2 |
| 20260906093307 | 57 | 306 | 0.0 | 0.0 | 0.00 | 0.00 | 0.00 | 91 | 1016.2 |
| 20260906093117 | 57 | 323 | 0.0 | 0.0 | 0.00 | 0.00 | 0.00 | 91 | 1016.2 |
| 20260906093038 | 57 | 355 | 0.0 | 0.0 | 0.00 | 0.00 | 0.00 | 91 | 1016.2 |
| 20260906092843 | 57 | 340 | 0.0 | 0.0 | 0.00 | 0.00 | 0.00 | 91 | 1016.2 |
| 20260906092806 | 57 | 323 | 0.0 | 0.0 | 0.00 | 0.00 | 0.00 | 91 | 1016.2 |
| 20260906092707 | 57 | 355 | 0.0 | 0.0 | 0.00 | 0.00 | 0.00 | 92 | 1016.1 |
| 20260906092630 | 57 | 343 | 0.0 | 0.0 | 0.00 | 0.00 | 0.00 | 92 | 1016.1 |
| 20260906092459 | 57 | 344 | 0.0 | 0.0 | 0.00 | 0.00 | 0.00 | 91 | 1016.1 |
| 20260906092415 | 57 | 332 | 0.0 | 0.0 | 0.00 | 0.00 | 0.00 | 91 | 1016.1 |
| 20260906092225 | 57 | 15 | 0.0 | 0.0 | 0.00 | 0.00 | 0.00 | 91 | 1016.1 |
| 20260906092140 | 57 | 331 | 0.0 | 0.0 | 0.00 | 0.00 | 0.00 | 91 | 1016.1 |
| 20260906092015 | 57 | 316 | 0.0 | 0.0 | 0.00 | 0.00 | 0.00 | 91 | 1016.1 |
| 20260906091935 | 57 | 328 | 0.0 | 0.0 | 0.00 | 0.00 | 0.00 | 91 | 1016.1 |
| 20260906091807 | 57 | 323 | 0.0 | 0.0 | 0.00 | 0.00 | 0.00 | 91 | 1016.0 |
| 20260906091722 | 57 | 360 | 0.0 | 0.0 | 0.00 | 0.00 | 0.00 | 92 | 1016.0 |
| 20260906091532 | 57 | 324 | 0.0 | 0.0 | 0.00 | 0.00 | 0.00 | 92 | 1016.0 |
| 20260906091448 | 57 | 318 | 0.0 | 0.0 | 0.00 | 0.00 | 0.00 | 91 | 1016.0 |
| 20260906091327 | 57 | 323 | 0.0 | 0.0 | 0.00 | 0.00 | 0.00 | 91 | 1016.0 |
| 20260906091227 | 57 | 5 | 0.0 | 0.0 | 0.00 | 0.00 | 0.00 | 91 | 1016.0 |
| 20260906091109 | 57 | 342 | 0.0 | 0.0 | 0.00 | 0.00 | 0.00 | 91 | 1016.0 |
| 20260906091030 | 57 | 319 | 0.0 | 0.0 | 0.00 | 0.00 | 0.00 | 91 | 1016.0 |
| 20260906090858 | 57 | 318 | 0.0 | 0.0 | 0.00 | 0.00 | 0.00 | 91 | 1016.0 |
| 20260906090752 | 57 | 324 | 0.0 | 0.0 | 0.00 | 0.00 | 0.00 | 91 | 1016.0 |
| 20260906090624 | 57 | 313 | 0.0 | 0.0 | 0.00 | 0.00 | 0.00 | 91 | 1016.0 |
| 20260906090524 | 57 | 332 | 0.0 | 0.0 | 0.00 | 0.00 | 0.00 | 91 | 1016.0 |
| 20260906090354 | 57 | 335 | 0.0 | 0.0 | 0.00 | 0.00 | 0.00 | 91 | 1016.0 |
| 20260906090247 | 57 | 355 | 0.0 | 0.0 | 0.00 | 0.00 | 0.00 | 91 | 1015.9 |
| 20260906090117 | 57 | 340 | 0.0 | 0.0 | 0.00 | 0.00 | 0.00 | 91 | 1015.9 |
| 20260906090038 | 57 | 350 | 0.0 | 0.0 | 0.00 | 0.00 | 0.00 | 91 | 1015.9 |
| 20260906085842 | 57 | 350 | 0.0 | 0.0 | 0.00 | 0.00 | 0.00 | 91 | 1015.9 |
| 20260906085743 | 57 | 348 | 0.0 | 0.0 | 0.00 | 0.00 | 0.00 | 91 | 1015.9 |
| 20260906085628 | 57 | 9 | 0.0 | 0.0 | 0.00 | 0.00 | 0.00 | 91 | 1015.9 |
| 20260906085522 | 57 | 355 | 0.0 | 0.0 | 0.00 | 0.00 | 0.00 | 91 | 1015.9 |
| 20260906085429 | 57 | 355 | 0.0 | 0.0 | 0.00 | 0.00 | 0.00 | 91 | 1015.8 |
| 20260906085344 | 57 | 330 | 0.0 | 0.0 | 0.00 | 0.00 | 0.00 | 91 | 1015.8 |
| 20260906085213 | 57 | 350 | 0.0 | 0.0 | 0.00 | 0.00 | 0.00 | 91 | 1015.9 |
| 20260906085134 | 57 | 336 | 0.0 | 0.0 | 0.00 | 0.00 | 0.00 | 91 | 1015.9 |
| 20260906085006 | 57 | 336 | 0.0 | 0.0 | 0.00 | 0.00 | 0.00 | 91 | 1015.8 |
| 20260906084839 | 57 | 5 | 0.0 | 0.0 | 0.00 | 0.00 | 0.00 | 91 | 1015.8 |
| 20260906084727 | 57 | 43 | 0.0 | 0.0 | 0.00 | 0.00 | 0.00 | 91 | 1015.8 |
| 20260906084648 | 57 | 355 | 0.0 | 0.0 | 0.00 | 0.00 | 0.00 | 91 | 1015.8 |
| 20260906084432 | 57 | 344 | 0.0 | 0.0 | 0.00 | 0.00 | 0.00 | 91 | 1015.8 |
| 20260906084336 | 57 | 355 | 0.0 | 0.0 | 0.00 | 0.00 | 0.00 | 91 | 1015.7 |
| 20260906084239 | 57 | 11 | 0.0 | 0.0 | 0.00 | 0.00 | 0.00 | 91 | 1015.8 |
| 20260906084158 | 57 | 22 | 0.0 | 0.0 | 0.00 | 0.00 | 0.00 | 91 | 1015.8 |
| 20260906084059 | 57 | 338 | 0.0 | 0.0 | 0.00 | 0.00 | 0.00 | 91 | 1015.8 |
| 20260906084003 | 57 | 338 | 0.0 | 0.0 | 0.00 | 0.00 | 0.00 | 91 | 1015.8 |
| 20260906083924 | 57 | 360 | 0.0 | 0.0 | 0.00 | 0.00 | 0.00 | 91 | 1015.8 |
| 20260906083726 | 57 | 355 | 0.0 | 0.0 | 0.00 | 0.00 | 0.00 | 91 | 1015.8 |
| 20260906083628 | 57 | 337 | 0.0 | 0.0 | 0.00 | 0.00 | 0.00 | 91 | 1015.8 |
| 20260906083533 | 57 | 355 | 0.0 | 0.0 | 0.00 | 0.00 | 0.00 | 91 | 1015.8 |
| 20260906083454 | 57 | 360 | 0.0 | 0.0 | 0.00 | 0.00 | 0.00 | 91 | 1015.8 |
| 20260906083358 | 57 | 355 | 0.0 | 0.0 | 0.00 | 0.00 | 0.00 | 91 | 1015.8 |
| 20260906083301 | 57 | 333 | 0.0 | 0.0 | 0.00 | 0.00 | 0.00 | 91 | 1015.8 |
| 20260906083224 | 57 | 355 | 0.0 | 0.0 | 0.00 | 0.00 | 0.00 | 91 | 1015.8 |
| 20260906083026 | 57 | 360 | 0.0 | 0.0 | 0.00 | 0.00 | 0.00 | 91 | 1015.8 |
| 20260906082927 | 57 | 35 | 0.0 | 0.0 | 0.00 | 0.00 | 0.00 | 91 | 1015.8 |
| 20260906082832 | 57 | 23 | 0.0 | 0.0 | 0.00 | 0.00 | 0.00 | 91 | 1015.8 |
| 20260906082734 | 57 | 351 | 0.0 | 0.0 | 0.00 | 0.00 | 0.00 | 91 | 1015.8 |
| 20260906082658 | 57 | 355 | 0.0 | 0.0 | 0.00 | 0.00 | 0.00 | 91 | 1015.8 |
| 20260906082525 | 57 | 19 | 0.0 | 0.0 | 0.00 | 0.00 | 0.00 | 91 | 1015.7 |
| 20260906082422 | 57 | 5 | 0.0 | 0.0 | 0.00 | 0.00 | 0.00 | 91 | 1015.8 |
| 20260906082354 | 57 | 343 | 0.0 | 0.0 | 0.00 | 0.00 | 0.00 | 91 | 1015.7 |
| 20260906082308 | 57 | 5 | 0.0 | 0.0 | 0.00 | 0.00 | 0.00 | 91 | 1015.7 |
| 20260906082209 | 57 | 5 | 0.0 | 0.0 | 0.00 | 0.00 | 0.00 | 91 | 1015.7 |
| 20260906082111 | 57 | 337 | 0.0 | 0.0 | 0.00 | 0.00 | 0.00 | 91 | 1015.7 |
| 20260906082016 | 57 | 36 | 0.0 | 0.0 | 0.00 | 0.00 | 0.00 | 91 | 1015.8 |
| 20260906081916 | 57 | 348 | 0.0 | 0.0 | 0.00 | 0.00 | 0.00 | 91 | 1015.7 |
| 20260906081746 | 57 | 11 | 0.0 | 0.0 | 0.00 | 0.00 | 0.00 | 91 | 1015.8 |
| 20260906081700 | 57 | 33 | 0.0 | 0.0 | 0.00 | 0.00 | 0.00 | 91 | 1015.7 |
| 20260906081530 | 57 | 328 | 0.0 | 0.0 | 0.00 | 0.00 | 0.00 | 91 | 1015.6 |
| 20260906081430 | 57 | 350 | 0.0 | 0.0 | 0.00 | 0.00 | 0.00 | 91 | 1015.6 |
| 20260906081304 | 57 | 350 | 0.0 | 0.0 | 0.00 | 0.00 | 0.00 | 91 | 1015.6 |
| 20260906081217 | 57 | 360 | 0.0 | 0.0 | 0.00 | 0.00 | 0.00 | 91 | 1015.6 |
| 20260906081056 | 57 | 325 | 0.0 | 0.0 | 0.00 | 0.00 | 0.00 | 91 | 1015.6 |
| 20260906081020 | 57 | 319 | 0.0 | 0.0 | 0.00 | 0.00 | 0.00 | 91 | 1015.6 |
| 20260906080933 | 57 | 5 | 0.0 | 0.0 | 0.00 | 0.00 | 0.00 | 91 | 1015.7 |
| 20260906080802 | 57 | 10 | 0.0 | 0.0 | 0.00 | 0.00 | 0.00 | 91 | 1015.7 |
| 20260906080724 | 57 | 5 | 0.0 | 0.0 | 0.00 | 0.00 | 0.00 | 91 | 1015.7 |
| 20260906080528 | 57 | 333 | 0.0 | 0.0 | 0.00 | 0.00 | 0.00 | 91 | 1015.6 |
| 20260906080451 | 57 | 349 | 0.0 | 0.0 | 0.00 | 0.00 | 0.00 | 91 | 1015.6 |
| 20260906080317 | 57 | 355 | 0.0 | 0.0 | 0.00 | 0.00 | 0.00 | 91 | 1015.6 |
| 20260906080245 | 57 | 350 | 0.0 | 0.0 | 0.00 | 0.00 | 0.00 | 91 | 1015.7 |
| 20260906080116 | 57 | 360 | 0.0 | 0.0 | 0.00 | 0.00 | 0.00 | 91 | 1015.6 |
| 20260906080017 | 57 | 360 | 0.0 | 0.0 | 0.00 | 0.00 | 0.00 | 91 | 1015.6 |
| 20260906075838 | 57 | 340 | 0.0 | 0.0 | 0.00 | 0.00 | 0.00 | 91 | 1015.6 |
| 20260906075740 | 57 | 350 | 0.0 | 0.0 | 0.00 | 0.00 | 0.00 | 91 | 1015.6 |
| 20260906075625 | 58 | 334 | 0.0 | 0.0 | 0.00 | 0.00 | 0.00 | 91 | 1015.6 |
| 20260906075547 | 58 | 341 | 0.0 | 0.0 | 0.00 | 0.00 | 0.00 | 91 | 1015.6 |
| 20260906075510 | 58 | 355 | 0.0 | 0.0 | 0.00 | 0.00 | 0.00 | 91 | 1015.5 |
| 20260906075354 | 58 | 351 | 0.0 | 0.0 | 0.00 | 0.00 | 0.00 | 91 | 1015.5 |
| 20260906075314 | 58 | 348 | 0.0 | 0.0 | 0.00 | 0.00 | 0.00 | 91 | 1015.5 |
| 20260906075145 | 58 | 343 | 0.0 | 0.0 | 0.00 | 0.00 | 0.00 | 91 | 1015.6 |
| 20260906075104 | 58 | 341 | 0.0 | 0.0 | 0.00 | 0.00 | 0.00 | 91 | 1015.5 |
| 20260906074924 | 58 | 360 | 0.0 | 0.0 | 0.00 | 0.00 | 0.00 | 91 | 1015.6 |
| 20260906074839 | 58 | 329 | 0.0 | 0.0 | 0.00 | 0.00 | 0.00 | 91 | 1015.5 |
| 20260906074707 | 58 | 355 | 0.0 | 0.0 | 0.00 | 0.00 | 0.00 | 91 | 1015.5 |
| 20260906074630 | 58 | 360 | 0.0 | 0.0 | 0.00 | 0.00 | 0.00 | 91 | 1015.5 |
| 20260906074452 | 58 | 355 | 0.0 | 0.0 | 0.00 | 0.00 | 0.00 | 91 | 1015.5 |
| 20260906074415 | 58 | 347 | 0.0 | 0.0 | 0.00 | 0.00 | 0.00 | 91 | 1015.5 |
| 20260906074154 | 58 | 340 | 0.0 | 0.0 | 0.00 | 0.00 | 0.00 | 91 | 1015.5 |
| 20260906074117 | 58 | 344 | 0.0 | 0.0 | 0.00 | 0.00 | 0.00 | 91 | 1015.5 |
| 20260906073940 | 58 | 325 | 0.0 | 0.0 | 0.00 | 0.00 | 0.00 | 91 | 1015.5 |
| 20260906073840 | 58 | 5 | 0.0 | 0.0 | 0.00 | 0.00 | 0.00 | 91 | 1015.5 |
| 20260906073747 | 58 | 347 | 0.0 | 0.0 | 0.00 | 0.00 | 0.00 | 91 | 1015.5 |
| 20260906073646 | 58 | 355 | 0.0 | 0.0 | 0.00 | 0.00 | 0.00 | 91 | 1015.4 |
| 20260906073518 | 58 | 325 | 0.0 | 0.0 | 0.00 | 0.00 | 0.00 | 91 | 1015.4 |
| 20260906073432 | 58 | 360 | 0.0 | 0.0 | 0.00 | 0.00 | 0.00 | 91 | 1015.4 |
| 20260906073250 | 58 | 355 | 0.0 | 0.0 | 0.00 | 0.00 | 0.00 | 92 | 1015.4 |
| 20260906073100 | 58 | 333 | 0.0 | 0.0 | 0.00 | 0.00 | 0.00 | 92 | 1015.4 |
| 20260906073014 | 58 | 333 | 0.0 | 0.0 | 0.00 | 0.00 | 0.00 | 92 | 1015.4 |
| 20260906072826 | 58 | 350 | 0.0 | 0.0 | 0.00 | 0.00 | 0.00 | 92 | 1015.4 |
| 20260906072740 | 58 | 350 | 0.0 | 0.0 | 0.00 | 0.00 | 0.00 | 92 | 1015.4 |
| 20260906072611 | 58 | 355 | 0.0 | 0.0 | 0.00 | 0.00 | 0.00 | 92 | 1015.4 |
| 20260906072511 | 58 | 360 | 0.0 | 0.0 | 0.00 | 0.00 | 0.00 | 92 | 1015.4 |
| 20260906072411 | 58 | 360 | 0.0 | 0.0 | 0.00 | 0.00 | 0.00 | 92 | 1015.4 |
| 20260906072320 | 58 | 360 | 0.0 | 0.0 | 0.00 | 0.00 | 0.00 | 92 | 1015.4 |
| 20260906072241 | 58 | 360 | 0.0 | 0.0 | 0.00 | 0.00 | 0.00 | 92 | 1015.4 |
| 20260906072113 | 58 | 360 | 0.0 | 0.0 | 0.00 | 0.00 | 0.00 | 92 | 1015.4 |
| 20260906072027 | 58 | 360 | 0.0 | 0.0 | 0.00 | 0.00 | 0.00 | 92 | 1015.4 |
| 20260906071857 | 58 | 18 | 0.0 | 0.0 | 0.00 | 0.00 | 0.00 | 92 | 1015.3 |
| 20260906071820 | 58 | 10 | 0.0 | 0.0 | 0.00 | 0.00 | 0.00 | 92 | 1015.3 |
| 20260906071623 | 58 | 355 | 0.0 | 0.0 | 0.00 | 0.00 | 0.00 | 92 | 1015.3 |
| 20260906071545 | 58 | 355 | 0.0 | 0.0 | 0.00 | 0.00 | 0.00 | 92 | 1015.3 |
| 20260906071430 | 58 | 336 | 0.0 | 0.0 | 0.00 | 0.00 | 0.00 | 91 | 1015.3 |
| 20260906071353 | 58 | 350 | 0.0 | 0.0 | 0.00 | 0.00 | 0.00 | 91 | 1015.3 |
| 20260906071254 | 58 | 350 | 0.0 | 0.0 | 0.00 | 0.00 | 0.00 | 91 | 1015.3 |
| 20260906071123 | 58 | 360 | 0.0 | 0.0 | 0.00 | 0.00 | 0.00 | 91 | 1015.2 |
| 20260906071026 | 58 | 351 | 0.0 | 0.0 | 0.00 | 0.00 | 0.00 | 91 | 1015.2 |
| 20260906070947 | 58 | 351 | 0.0 | 0.0 | 0.00 | 0.00 | 0.00 | 91 | 1015.3 |
| 20260906070841 | 58 | 11 | 0.0 | 0.0 | 0.00 | 0.00 | 0.00 | 91 | 1015.3 |
| 20260906070724 | 58 | 355 | 0.0 | 0.0 | 0.00 | 0.00 | 0.00 | 91 | 1015.2 |
| 20260906070645 | 58 | 338 | 0.0 | 0.0 | 0.00 | 0.00 | 0.00 | 91 | 1015.2 |
| 20260906070428 | 58 | 347 | 0.0 | 0.0 | 0.00 | 0.00 | 0.00 | 91 | 1015.3 |
| 20260906070333 | 58 | 329 | 0.0 | 0.0 | 0.00 | 0.00 | 0.00 | 91 | 1015.3 |
| 20260906070227 | 58 | 327 | 0.0 | 0.0 | 0.00 | 0.00 | 0.00 | 91 | 1015.3 |
| 20260906070148 | 58 | 340 | 0.0 | 0.0 | 0.00 | 0.00 | 0.00 | 91 | 1015.3 |
| 20260906070043 | 58 | 346 | 0.0 | 0.0 | 0.00 | 0.00 | 0.00 | 91 | 1015.2 |
| 20260906070004 | 58 | 9 | 0.0 | 0.0 | 0.00 | 0.00 | 0.00 | 90 | 1015.2 |
| 20260906065825 | 58 | 344 | 0.0 | 0.0 | 0.00 | 0.00 | 0.00 | 90 | 1015.2 |
| 20260906065747 | 58 | 335 | 0.0 | 0.0 | 0.00 | 0.00 | 0.00 | 90 | 1015.2 |
| 20260906065616 | 58 | 340 | 0.0 | 0.0 | 0.00 | 0.00 | 0.00 | 90 | 1015.2 |
| 20260906065531 | 58 | 340 | 0.0 | 0.0 | 0.00 | 0.00 | 0.00 | 90 | 1015.2 |
| 20260906065401 | 58 | 344 | 0.0 | 0.0 | 0.00 | 0.00 | 0.00 | 90 | 1015.2 |
| 20260906065326 | 58 | 347 | 0.0 | 0.0 | 0.00 | 0.00 | 0.00 | 90 | 1015.2 |
| 20260906065131 | 58 | 5 | 0.0 | 0.0 | 0.00 | 0.00 | 0.00 | 90 | 1015.2 |
| 20260906065032 | 58 | 360 | 0.0 | 0.0 | 0.00 | 0.00 | 0.00 | 90 | 1015.2 |
| 20260906064935 | 58 | 355 | 0.0 | 0.0 | 0.00 | 0.00 | 0.00 | 90 | 1015.1 |
| 20260906064855 | 58 | 355 | 0.0 | 0.0 | 0.00 | 0.00 | 0.00 | 90 | 1015.1 |
| 20260906064756 | 59 | 355 | 0.0 | 0.0 | 0.00 | 0.00 | 0.00 | 90 | 1015.1 |
| 20260906064700 | 59 | 351 | 0.0 | 0.0 | 0.00 | 0.00 | 0.00 | 90 | 1015.1 |
| 20260906064541 | 58 | 5 | 0.0 | 0.0 | 0.00 | 0.00 | 0.00 | 90 | 1015.1 |
| 20260906064444 | 59 | 20 | 0.0 | 0.0 | 0.00 | 0.00 | 0.00 | 90 | 1015.2 |
| 20260906064344 | 59 | 355 | 0.0 | 0.0 | 0.00 | 0.00 | 0.00 | 90 | 1015.1 |
| 20260906064128 | 59 | 355 | 0.0 | 0.0 | 0.00 | 0.00 | 0.00 | 90 | 1015.2 |
| 20260906064020 | 59 | 355 | 0.0 | 0.0 | 0.00 | 0.00 | 0.00 | 90 | 1015.2 |
| 20260906063832 | 59 | 344 | 0.0 | 0.0 | 0.00 | 0.00 | 0.00 | 90 | 1015.2 |
| 20260906063746 | 59 | 355 | 0.0 | 0.0 | 0.00 | 0.00 | 0.00 | 90 | 1015.2 |
| 20260906063555 | 59 | 17 | 0.0 | 0.0 | 0.00 | 0.00 | 0.00 | 90 | 1015.1 |
| 20260906063516 | 59 | 332 | 0.0 | 0.0 | 0.00 | 0.00 | 0.00 | 91 | 1015.2 |
| 20260906063348 | 59 | 26 | 0.0 | 0.0 | 0.00 | 0.00 | 0.00 | 91 | 1015.2 |
| 20260906063240 | 59 | 26 | 0.0 | 0.0 | 0.00 | 0.00 | 0.00 | 91 | 1015.1 |
| 20260906063124 | 59 | 26 | 0.0 | 0.0 | 0.00 | 0.00 | 0.00 | 91 | 1015.1 |
| 20260906063045 | 59 | 26 | 0.0 | 0.0 | 0.00 | 0.00 | 0.00 | 91 | 1015.1 |
| 20260906062832 | 59 | 26 | 0.0 | 0.0 | 0.00 | 0.00 | 0.00 | 91 | 1015.1 |
| 20260906062734 | 59 | 26 | 0.0 | 0.0 | 0.00 | 0.00 | 0.00 | 91 | 1015.1 |
| 20260906062638 | 59 | 26 | 0.0 | 0.0 | 0.00 | 0.00 | 0.00 | 91 | 1015.1 |
| 20260906062601 | 59 | 26 | 0.0 | 0.0 | 0.00 | 0.00 | 0.00 | 91 | 1015.1 |
| 20260906062522 | 59 | 26 | 0.0 | 0.0 | 0.00 | 0.00 | 0.00 | 91 | 1015.1 |
| 20260906062404 | 59 | 26 | 0.0 | 0.0 | 0.00 | 0.00 | 0.00 | 91 | 1015.0 |
| 20260906062325 | 59 | 26 | 0.0 | 0.0 | 0.00 | 0.00 | 0.00 | 91 | 1015.0 |
| 20260906062130 | 59 | 5 | 0.0 | 0.0 | 0.00 | 0.00 | 0.00 | 91 | 1015.0 |
| 20260906062032 | 59 | 5 | 0.0 | 0.0 | 0.00 | 0.00 | 0.00 | 91 | 1015.0 |
| 20260906061939 | 59 | 5 | 0.0 | 0.0 | 0.00 | 0.00 | 0.00 | 91 | 1015.0 |
| 20260906061900 | 59 | 5 | 0.0 | 0.0 | 0.00 | 0.00 | 0.00 | 91 | 1015.0 |
| 20260906061718 | 59 | 355 | 0.0 | 0.0 | 0.00 | 0.00 | 0.00 | 91 | 1015.0 |
| 20260906061529 | 59 | 360 | 0.0 | 0.0 | 0.00 | 0.00 | 0.00 | 91 | 1015.0 |
| 20260906061423 | 59 | 360 | 0.0 | 0.0 | 0.00 | 0.00 | 0.00 | 91 | 1015.0 |
| 20260906061234 | 59 | 360 | 0.0 | 0.0 | 0.00 | 0.00 | 0.00 | 91 | 1015.0 |
| 20260906061149 | 59 | 360 | 0.0 | 0.0 | 0.00 | 0.00 | 0.00 | 91 | 1015.0 |
| 20260906060938 | 59 | 26 | 0.0 | 0.0 | 0.00 | 0.00 | 0.00 | 91 | 1015.0 |
| 20260906060835 | 59 | 23 | 0.0 | 0.0 | 0.00 | 0.00 | 0.00 | 91 | 1015.0 |
| 20260906060724 | 59 | 17 | 0.0 | 0.0 | 0.00 | 0.00 | 0.00 | 91 | 1014.9 |
| 20260906060645 | 59 | 17 | 0.0 | 0.0 | 0.00 | 0.00 | 0.00 | 91 | 1014.9 |
| 20260906060516 | 59 | 348 | 0.0 | 0.0 | 0.00 | 0.00 | 0.00 | 91 | 1014.9 |
| 20260906060430 | 59 | 348 | 0.0 | 0.0 | 0.00 | 0.00 | 0.00 | 91 | 1014.9 |
| 20260906060301 | 59 | 348 | 0.0 | 0.0 | 0.00 | 0.00 | 0.00 | 91 | 1015.0 |
| 20260906060223 | 59 | 348 | 0.0 | 0.0 | 0.00 | 0.00 | 0.00 | 91 | 1015.0 |
| 20260906060025 | 59 | 327 | 0.0 | 0.0 | 0.00 | 0.00 | 0.00 | 92 | 1015.0 |
| 20260906055929 | 59 | 32 | 0.0 | 0.0 | 0.00 | 0.00 | 0.00 | 92 | 1015.0 |
| 20260906055831 | 59 | 32 | 0.0 | 0.0 | 0.00 | 0.00 | 0.00 | 92 | 1015.0 |
| 20260906055731 | 59 | 32 | 0.0 | 0.0 | 0.00 | 0.00 | 0.00 | 92 | 1015.0 |
| 20260906055601 | 59 | 42 | 0.0 | 0.0 | 0.00 | 0.00 | 0.00 | 92 | 1015.0 |
| 20260906055521 | 59 | 42 | 0.0 | 0.0 | 0.00 | 0.00 | 0.00 | 92 | 1015.0 |
| 20260906055350 | 59 | 360 | 0.0 | 0.0 | 0.00 | 0.00 | 0.00 | 92 | 1015.0 |
| 20260906055311 | 59 | 360 | 0.0 | 0.0 | 0.00 | 0.00 | 0.00 | 92 | 1015.0 |
| 20260906055155 | 59 | 336 | 0.0 | 0.0 | 0.00 | 0.00 | 0.00 | 92 | 1014.9 |
| 20260906055117 | 59 | 48 | 0.0 | 0.0 | 0.00 | 0.00 | 0.00 | 92 | 1015.0 |
| 20260906054946 | 59 | 48 | 0.0 | 0.0 | 0.00 | 0.00 | 0.00 | 92 | 1015.0 |
| 20260906054902 | 59 | 48 | 0.0 | 0.0 | 0.00 | 0.00 | 0.00 | 92 | 1014.9 |
| 20260906054709 | 59 | 29 | 0.0 | 0.0 | 0.00 | 0.00 | 0.00 | 92 | 1014.9 |
| 20260906054630 | 59 | 29 | 0.0 | 0.0 | 0.00 | 0.00 | 0.00 | 92 | 1014.9 |
| 20260906054434 | 59 | 29 | 0.0 | 0.0 | 0.00 | 0.00 | 0.00 | 92 | 1014.9 |
| 20260906054356 | 59 | 29 | 0.0 | 0.0 | 0.00 | 0.00 | 0.00 | 92 | 1014.9 |
| 20260906054244 | 59 | 29 | 0.0 | 0.0 | 0.00 | 0.00 | 0.00 | 93 | 1014.9 |
| 20260906054205 | 59 | 29 | 0.0 | 0.0 | 0.00 | 0.00 | 0.00 | 93 | 1014.9 |
| 20260906054105 | 59 | 5 | 0.0 | 0.0 | 0.00 | 0.00 | 0.00 | 93 | 1014.9 |
| 20260906054009 | 59 | 5 | 0.0 | 0.0 | 0.00 | 0.00 | 0.00 | 93 | 1014.9 |
| 20260906053930 | 59 | 5 | 0.0 | 0.0 | 0.00 | 0.00 | 0.00 | 93 | 1014.9 |
| 20260906053738 | 59 | 355 | 0.0 | 0.0 | 0.00 | 0.00 | 0.00 | 93 | 1014.8 |
| 20260906053621 | 59 | 355 | 0.0 | 0.0 | 0.00 | 0.00 | 0.00 | 93 | 1014.8 |
| 20260906053543 | 59 | 355 | 0.0 | 0.0 | 0.00 | 0.00 | 0.00 | 93 | 1014.9 |
| 20260906053413 | 59 | 355 | 0.0 | 0.0 | 0.00 | 0.00 | 0.00 | 93 | 1014.9 |
| 20260906053306 | 59 | 355 | 0.0 | 0.0 | 0.00 | 0.00 | 0.00 | 93 | 1014.8 |
| 20260906053136 | 59 | 350 | 0.0 | 0.0 | 0.00 | 0.00 | 0.00 | 93 | 1014.8 |
| 20260906053034 | 59 | 15 | 0.0 | 0.0 | 0.00 | 0.00 | 0.00 | 93 | 1014.8 |
| 20260906052903 | 59 | 339 | 0.0 | 0.0 | 0.00 | 0.00 | 0.00 | 93 | 1014.8 |
| 20260906052828 | 59 | 339 | 0.0 | 0.0 | 0.00 | 0.00 | 0.00 | 94 | 1014.8 |
| 20260906052640 | 59 | 339 | 0.0 | 0.0 | 0.00 | 0.00 | 0.00 | 93 | 1014.8 |
| 20260906052535 | 59 | 339 | 0.0 | 0.0 | 0.00 | 0.00 | 0.00 | 94 | 1014.8 |
| 20260906052458 | 59 | 339 | 0.0 | 0.0 | 0.00 | 0.00 | 0.00 | 93 | 1014.8 |
| 20260906052323 | 59 | 339 | 0.0 | 0.0 | 0.00 | 0.00 | 0.00 | 93 | 1014.9 |
| 20260906052239 | 59 | 339 | 0.0 | 0.0 | 0.00 | 0.00 | 0.00 | 93 | 1014.9 |
| 20260906052108 | 59 | 338 | 0.0 | 0.0 | 0.00 | 0.00 | 0.00 | 93 | 1014.9 |
| 20260906052029 | 59 | 338 | 0.0 | 0.0 | 0.00 | 0.00 | 0.00 | 93 | 1014.9 |
| 20260906051835 | 59 | 338 | 0.0 | 0.0 | 0.00 | 0.00 | 0.00 | 93 | 1014.8 |
| 20260906051756 | 59 | 338 | 0.0 | 0.0 | 0.00 | 0.00 | 0.00 | 93 | 1014.8 |
| 20260906051700 | 59 | 338 | 0.0 | 0.0 | 0.00 | 0.00 | 0.00 | 93 | 1014.8 |
| 20260906051621 | 59 | 338 | 0.0 | 0.0 | 0.00 | 0.00 | 0.00 | 93 | 1014.8 |
| 20260906051452 | 59 | 338 | 0.0 | 0.0 | 0.00 | 0.00 | 0.00 | 93 | 1014.8 |
| 20260906051418 | 59 | 338 | 0.0 | 0.0 | 0.00 | 0.00 | 0.00 | 93 | 1014.8 |
| 20260906051228 | 59 | 328 | 0.0 | 0.0 | 0.00 | 0.00 | 0.00 | 93 | 1014.7 |
| 20260906051142 | 59 | 327 | 0.0 | 0.0 | 0.00 | 0.00 | 0.00 | 93 | 1014.8 |
| 20260906051013 | 59 | 328 | 0.0 | 0.0 | 0.00 | 0.00 | 0.00 | 93 | 1014.7 |
| 20260906050935 | 59 | 328 | 0.0 | 0.0 | 0.00 | 0.00 | 0.00 | 93 | 1014.7 |
| 20260906050805 | 59 | 328 | 0.0 | 0.0 | 0.00 | 0.00 | 0.00 | 93 | 1014.8 |
| 20260906050718 | 59 | 328 | 0.0 | 0.0 | 0.00 | 0.00 | 0.00 | 93 | 1014.7 |
| 20260906050534 | 59 | 328 | 0.0 | 0.0 | 0.00 | 0.00 | 0.00 | 93 | 1014.7 |
| 20260906050449 | 59 | 328 | 0.0 | 0.0 | 0.00 | 0.00 | 0.00 | 93 | 1014.8 |
| 20260906050348 | 59 | 328 | 0.0 | 0.0 | 0.00 | 0.00 | 0.00 | 93 | 1014.7 |
| 20260906050311 | 59 | 328 | 0.0 | 0.0 | 0.00 | 0.00 | 0.00 | 92 | 1014.7 |
| 20260906050226 | 59 | 328 | 0.0 | 0.0 | 0.00 | 0.00 | 0.00 | 92 | 1014.7 |
| 20260906050035 | 59 | 328 | 0.0 | 0.0 | 0.00 | 0.00 | 0.00 | 93 | 1014.7 |
| 20260906045951 | 59 | 328 | 0.0 | 0.0 | 0.00 | 0.00 | 0.00 | 93 | 1014.6 |
| 20260906045821 | 59 | 328 | 0.0 | 0.0 | 0.00 | 0.00 | 0.00 | 93 | 1014.6 |
| 20260906045721 | 59 | 328 | 0.0 | 0.0 | 0.00 | 0.00 | 0.00 | 93 | 1014.6 |
| 20260906045525 | 60 | 328 | 0.0 | 0.0 | 0.00 | 0.00 | 0.00 | 92 | 1014.6 |
| 20260906045432 | 60 | 328 | 0.0 | 0.0 | 0.00 | 0.00 | 0.00 | 92 | 1014.6 |
| 20260906045335 | 60 | 328 | 0.0 | 0.0 | 0.00 | 0.00 | 0.00 | 93 | 1014.6 |
| 20260906045235 | 60 | 328 | 0.0 | 0.0 | 0.00 | 0.00 | 0.00 | 93 | 1014.6 |
| 20260906045118 | 60 | 328 | 0.0 | 0.0 | 0.00 | 0.00 | 0.00 | 93 | 1014.6 |
| 20260906045031 | 60 | 327 | 0.0 | 0.0 | 0.00 | 0.00 | 0.00 | 93 | 1014.6 |
| 20260906044842 | 60 | 328 | 0.0 | 0.0 | 0.00 | 0.00 | 0.00 | 93 | 1014.5 |
| 20260906044757 | 60 | 328 | 0.0 | 0.0 | 0.00 | 0.00 | 0.00 | 93 | 1014.5 |
| 20260906044638 | 60 | 328 | 0.0 | 0.0 | 0.00 | 0.00 | 0.00 | 93 | 1014.5 |
| 20260906044551 | 60 | 328 | 0.0 | 0.0 | 0.00 | 0.00 | 0.00 | 93 | 1014.5 |
| 20260906044433 | 60 | 328 | 0.0 | 0.0 | 0.00 | 0.00 | 0.00 | 93 | 1014.5 |
| 20260906044336 | 60 | 328 | 0.0 | 0.0 | 0.00 | 0.00 | 0.00 | 93 | 1014.5 |
| 20260906044147 | 60 | 328 | 0.0 | 0.0 | 0.00 | 0.00 | 0.00 | 93 | 1014.5 |
| 20260906044040 | 60 | 327 | 0.0 | 0.0 | 0.00 | 0.00 | 0.00 | 93 | 1014.5 |
| 20260906043925 | 60 | 327 | 0.0 | 0.0 | 0.00 | 0.00 | 0.00 | 93 | 1014.5 |
| 20260906043848 | 60 | 328 | 0.0 | 0.0 | 0.00 | 0.00 | 0.00 | 93 | 1014.4 |
| 20260906043718 | 60 | 328 | 0.0 | 0.0 | 0.00 | 0.00 | 0.00 | 93 | 1014.5 |
| 20260906043632 | 60 | 327 | 0.0 | 0.0 | 0.00 | 0.00 | 0.00 | 93 | 1014.5 |
| 20260906043443 | 60 | 327 | 0.0 | 0.0 | 0.00 | 0.00 | 0.00 | 93 | 1014.5 |
| 20260906043337 | 60 | 328 | 0.0 | 0.0 | 0.00 | 0.00 | 0.00 | 93 | 1014.4 |
| 20260906043225 | 60 | 328 | 0.0 | 0.0 | 0.00 | 0.00 | 0.00 | 93 | 1014.4 |
| 20260906043146 | 60 | 327 | 0.0 | 0.0 | 0.00 | 0.00 | 0.00 | 93 | 1014.4 |
| 20260906043057 | 60 | 327 | 0.0 | 0.0 | 0.00 | 0.00 | 0.00 | 93 | 1014.4 |
| 20260906043011 | 60 | 325 | 0.0 | 0.0 | 0.00 | 0.00 | 0.00 | 93 | 1014.4 |
| 20260906042931 | 60 | 322 | 0.0 | 0.0 | 0.00 | 0.00 | 0.00 | 93 | 1014.4 |
| 20260906042803 | 61 | 322 | 0.0 | 0.0 | 0.00 | 0.00 | 0.00 | 93 | 1014.4 |
| 20260906042717 | 61 | 322 | 0.0 | 0.0 | 0.00 | 0.00 | 0.00 | 93 | 1014.4 |
| 20260906042547 | 61 | 322 | 0.0 | 0.0 | 0.00 | 0.00 | 0.00 | 93 | 1014.4 |
| 20260906042509 | 61 | 322 | 0.0 | 0.0 | 0.00 | 0.00 | 0.00 | 93 | 1014.4 |
| 20260906042311 | 61 | 322 | 0.0 | 0.0 | 0.00 | 0.00 | 0.00 | 93 | 1014.4 |
| 20260906042232 | 61 | 322 | 0.0 | 0.0 | 0.00 | 0.00 | 0.00 | 93 | 1014.4 |
| 20260906042048 | 61 | 322 | 0.0 | 0.0 | 0.00 | 0.00 | 0.00 | 93 | 1014.4 |
| 20260906041942 | 61 | 322 | 0.0 | 0.0 | 0.00 | 0.00 | 0.00 | 93 | 1014.4 |
| 20260906041826 | 61 | 322 | 0.0 | 0.0 | 0.00 | 0.00 | 0.00 | 93 | 1014.4 |
| 20260906041747 | 61 | 322 | 0.0 | 0.0 | 0.00 | 0.00 | 0.00 | 93 | 1014.4 |
| 20260906041709 | 61 | 322 | 0.0 | 0.0 | 0.00 | 0.00 | 0.00 | 93 | 1014.3 |
| 20260906041612 | 61 | 322 | 0.0 | 0.0 | 0.00 | 0.00 | 0.00 | 93 | 1014.3 |
| 20260906041534 | 61 | 322 | 0.0 | 0.0 | 0.00 | 0.00 | 0.00 | 93 | 1014.3 |
| 20260906041405 | 61 | 322 | 0.0 | 0.0 | 0.00 | 0.00 | 0.00 | 93 | 1014.3 |
| 20260906041319 | 61 | 322 | 0.0 | 0.0 | 0.00 | 0.00 | 0.00 | 93 | 1014.3 |
| 20260906041130 | 61 | 322 | 0.0 | 0.0 | 0.00 | 0.00 | 0.00 | 93 | 1014.4 |
| 20260906041049 | 61 | 322 | 0.0 | 1.0 | 0.00 | 0.00 | 0.00 | 93 | 1014.4 |
| 20260906040919 | 61 | 322 | 0.0 | 2.0 | 0.00 | 0.00 | 0.00 | 93 | 1014.3 |
| 20260906040819 | 61 | 322 | 0.0 | 2.0 | 0.00 | 0.00 | 0.00 | 93 | 1014.3 |
| 20260906040649 | 61 | 322 | 0.0 | 2.0 | 0.00 | 0.00 | 0.00 | 93 | 1014.2 |
| 20260906040524 | 61 | 322 | 0.0 | 2.0 | 0.00 | 0.00 | 0.00 | 93 | 1014.2 |
| 20260906040428 | 61 | 322 | 0.0 | 2.0 | 0.00 | 0.00 | 0.00 | 93 | 1014.2 |
| 20260906040349 | 61 | 322 | 0.0 | 2.0 | 0.00 | 0.00 | 0.00 | 93 | 1014.2 |
| 20260906040249 | 61 | 207 | 0.0 | 2.0 | 0.00 | 0.00 | 0.00 | 93 | 1014.2 |
| 20260906040154 | 61 | 207 | 0.0 | 2.0 | 0.00 | 0.00 | 0.00 | 93 | 1014.1 |
| 20260906040115 | 61 | 240 | 0.0 | 2.0 | 0.00 | 0.00 | 0.00 | 93 | 1014.1 |
| 20260906035923 | 61 | 240 | 1.0 | 2.0 | 0.00 | 0.00 | 0.00 | 93 | 1014.1 |
| 20260906035841 | 61 | 286 | 1.0 | 2.0 | 0.00 | 0.00 | 0.00 | 93 | 1014.1 |
| 20260906035710 | 61 | 340 | 0.0 | 3.0 | 0.00 | 0.00 | 0.00 | 93 | 1014.1 |
| 20260906035631 | 61 | 340 | 0.0 | 3.0 | 0.00 | 0.00 | 0.00 | 93 | 1014.1 |
| 20260906035437 | 61 | 340 | 0.0 | 3.0 | 0.00 | 0.00 | 0.00 | 94 | 1014.2 |
| 20260906035341 | 61 | 340 | 0.0 | 3.0 | 0.00 | 0.00 | 0.00 | 94 | 1014.2 |
| 20260906035222 | 61 | 340 | 1.0 | 3.0 | 0.00 | 0.00 | 0.00 | 93 | 1014.3 |
| 20260906035146 | 61 | 340 | 1.0 | 3.0 | 0.00 | 0.00 | 0.00 | 93 | 1014.3 |
| 20260906035017 | 61 | 340 | 1.0 | 3.0 | 0.00 | 0.00 | 0.00 | 93 | 1014.4 |
| 20260906034938 | 61 | 340 | 2.0 | 3.0 | 0.00 | 0.00 | 0.00 | 93 | 1014.4 |
| 20260906034809 | 61 | 340 | 1.0 | 3.0 | 0.00 | 0.00 | 0.00 | 93 | 1014.4 |
| 20260906034728 | 61 | 340 | 1.0 | 2.0 | 0.00 | 0.00 | 0.00 | 93 | 1014.4 |
| 20260906034538 | 61 | 340 | 1.0 | 2.0 | 0.00 | 0.00 | 0.00 | 93 | 1014.4 |
| 20260906034436 | 61 | 340 | 0.0 | 2.0 | 0.00 | 0.00 | 0.00 | 93 | 1014.4 |
| 20260906034331 | 61 | 340 | 0.0 | 2.0 | 0.00 | 0.00 | 0.00 | 93 | 1014.4 |
| 20260906034251 | 61 | 340 | 0.0 | 2.0 | 0.00 | 0.00 | 0.00 | 93 | 1014.4 |
| 20260906034101 | 61 | 340 | 0.0 | 2.0 | 0.00 | 0.00 | 0.00 | 93 | 1014.3 |
| 20260906034016 | 61 | 340 | 0.0 | 2.0 | 0.00 | 0.00 | 0.00 | 93 | 1014.4 |
| 20260906033827 | 62 | 340 | 1.0 | 2.0 | 0.00 | 0.00 | 0.00 | 93 | 1014.3 |
| 20260906033727 | 62 | 340 | 0.0 | 1.0 | 0.00 | 0.00 | 0.00 | 93 | 1014.3 |
| 20260906033649 | 62 | 340 | 0.0 | 1.0 | 0.00 | 0.00 | 0.00 | 93 | 1014.3 |
| 20260906033602 | 62 | 340 | 0.0 | 1.0 | 0.00 | 0.00 | 0.00 | 93 | 1014.3 |
| 20260906033444 | 62 | 340 | 0.0 | 1.0 | 0.00 | 0.00 | 0.00 | 93 | 1014.3 |
| 20260906033327 | 62 | 340 | 0.0 | 1.0 | 0.00 | 0.00 | 0.00 | 93 | 1014.2 |
| 20260906033250 | 62 | 340 | 0.0 | 1.0 | 0.00 | 0.00 | 0.00 | 93 | 1014.2 |
| 20260906033210 | 62 | 340 | 0.0 | 1.0 | 0.00 | 0.00 | 0.00 | 93 | 1014.2 |
| 20260906033052 | 62 | 340 | 0.0 | 1.0 | 0.00 | 0.00 | 0.00 | 93 | 1014.2 |
| 20260906033015 | 62 | 340 | 0.0 | 1.0 | 0.00 | 0.00 | 0.00 | 93 | 1014.2 |
| 20260906032726 | 62 | 340 | 0.0 | 1.0 | 0.00 | 0.00 | 0.00 | 93 | 1014.2 |
| 20260906032631 | 62 | 340 | 0.0 | 1.0 | 0.00 | 0.00 | 0.00 | 93 | 1014.2 |
| 20260906032534 | 62 | 340 | 0.0 | 0.0 | 0.00 | 0.00 | 0.00 | 93 | 1014.3 |
| 20260906032456 | 62 | 340 | 0.0 | 0.0 | 0.00 | 0.00 | 0.00 | 93 | 1014.3 |
| 20260906032419 | 62 | 340 | 0.0 | 0.0 | 0.00 | 0.00 | 0.00 | 93 | 1014.3 |
| 20260906032305 | 62 | 340 | 0.0 | 0.0 | 0.00 | 0.00 | 0.00 | 93 | 1014.3 |
| 20260906032223 | 62 | 340 | 0.0 | 0.0 | 0.00 | 0.00 | 0.00 | 93 | 1014.3 |
| 20260906032052 | 62 | 340 | 0.0 | 0.0 | 0.00 | 0.00 | 0.00 | 93 | 1014.3 |
| 20260906032006 | 62 | 340 | 0.0 | 0.0 | 0.00 | 0.00 | 0.00 | 93 | 1014.3 |
| 20260906031835 | 62 | 340 | 0.0 | 0.0 | 0.00 | 0.00 | 0.00 | 93 | 1014.3 |
| 20260906031734 | 62 | 340 | 0.0 | 0.0 | 0.00 | 0.00 | 0.00 | 93 | 1014.3 |
| 20260906031607 | 62 | 340 | 0.0 | 0.0 | 0.00 | 0.00 | 0.00 | 93 | 1014.3 |
| 20260906031520 | 62 | 340 | 0.0 | 0.0 | 0.00 | 0.00 | 0.00 | 93 | 1014.3 |
| 20260906031355 | 62 | 340 | 0.0 | 0.0 | 0.00 | 0.00 | 0.00 | 93 | 1014.3 |
| 20260906031316 | 62 | 340 | 0.0 | 0.0 | 0.00 | 0.00 | 0.00 | 93 | 1014.3 |
| 20260906031139 | 62 | 340 | 0.0 | 0.0 | 0.00 | 0.00 | 0.00 | 93 | 1014.3 |
| 20260906031040 | 62 | 340 | 0.0 | 0.0 | 0.00 | 0.00 | 0.00 | 93 | 1014.3 |
| 20260906030943 | 62 | 340 | 0.0 | 0.0 | 0.00 | 0.00 | 0.00 | 93 | 1014.3 |
| 20260906030844 | 62 | 340 | 0.0 | 0.0 | 0.00 | 0.00 | 0.00 | 93 | 1014.3 |
| 20260906030654 | 62 | 340 | 0.0 | 0.0 | 0.00 | 0.00 | 0.00 | 93 | 1014.3 |
| 20260906030548 | 62 | 340 | 0.0 | 0.0 | 0.00 | 0.00 | 0.00 | 93 | 1014.3 |
| 20260906030357 | 62 | 340 | 0.0 | 0.0 | 0.00 | 0.00 | 0.00 | 93 | 1014.3 |
| 20260906030319 | 62 | 340 | 0.0 | 0.0 | 0.00 | 0.00 | 0.00 | 93 | 1014.3 |
| 20260906030149 | 62 | 340 | 0.0 | 0.0 | 0.00 | 0.00 | 0.00 | 93 | 1014.3 |
| 20260906030049 | 62 | 340 | 0.0 | 0.0 | 0.00 | 0.00 | 0.00 | 93 | 1014.3 |
| 20260906025924 | 62 | 340 | 0.0 | 0.0 | 0.00 | 0.00 | 0.00 | 93 | 1014.3 |
| 20260906025844 | 62 | 340 | 0.0 | 0.0 | 0.00 | 0.00 | 0.00 | 93 | 1014.3 |
| 20260906025805 | 62 | 340 | 0.0 | 0.0 | 0.00 | 0.00 | 0.00 | 93 | 1014.3 |
| 20260906025706 | 62 | 340 | 0.0 | 0.0 | 0.00 | 0.00 | 0.00 | 93 | 1014.3 |
| 20260906025629 | 62 | 340 | 0.0 | 0.0 | 0.00 | 0.00 | 0.00 | 93 | 1014.3 |
| 20260906025434 | 62 | 340 | 0.0 | 0.0 | 0.00 | 0.00 | 0.00 | 93 | 1014.4 |
| 20260906025334 | 62 | 340 | 0.0 | 0.0 | 0.00 | 0.00 | 0.00 | 93 | 1014.4 |
| 20260906025227 | 62 | 340 | 0.0 | 0.0 | 0.00 | 0.00 | 0.00 | 93 | 1014.4 |
| 20260906025129 | 62 | 340 | 0.0 | 0.0 | 0.00 | 0.00 | 0.00 | 93 | 1014.4 |
| 20260906024937 | 62 | 340 | 0.0 | 0.0 | 0.00 | 0.00 | 0.00 | 93 | 1014.4 |
| 20260906024839 | 62 | 340 | 0.0 | 0.0 | 0.00 | 0.00 | 0.00 | 93 | 1014.4 |
| 20260906024723 | 62 | 340 | 0.0 | 0.0 | 0.00 | 0.00 | 0.00 | 93 | 1014.4 |
| 20260906024646 | 62 | 340 | 0.0 | 0.0 | 0.00 | 0.00 | 0.00 | 93 | 1014.3 |
| 20260906024540 | 62 | 340 | 0.0 | 0.0 | 0.00 | 0.00 | 0.00 | 93 | 1014.4 |
| 20260906024441 | 62 | 340 | 0.0 | 0.0 | 0.00 | 0.00 | 0.00 | 93 | 1014.4 |
| 20260906024312 | 62 | 340 | 0.0 | 0.0 | 0.00 | 0.00 | 0.00 | 93 | 1014.4 |
| 20260906024234 | 62 | 340 | 0.0 | 0.0 | 0.00 | 0.00 | 0.00 | 93 | 1014.4 |
| 20260906024039 | 62 | 340 | 0.0 | 0.0 | 0.00 | 0.00 | 0.00 | 93 | 1014.3 |
| 20260906024003 | 62 | 340 | 0.0 | 0.0 | 0.00 | 0.00 | 0.00 | 93 | 1014.3 |
| 20260906023908 | 62 | 340 | 0.0 | 0.0 | 0.00 | 0.00 | 0.00 | 93 | 1014.3 |
| 20260906023829 | 62 | 340 | 0.0 | 0.0 | 0.00 | 0.00 | 0.00 | 93 | 1014.3 |
| 20260906023633 | 62 | 340 | 0.0 | 0.0 | 0.00 | 0.00 | 0.00 | 93 | 1014.3 |
| 20260906023535 | 62 | 340 | 0.0 | 0.0 | 0.00 | 0.00 | 0.00 | 93 | 1014.3 |
| 20260906023438 | 62 | 340 | 0.0 | 0.0 | 0.00 | 0.00 | 0.00 | 93 | 1014.3 |
| 20260906023400 | 62 | 340 | 0.0 | 0.0 | 0.00 | 0.00 | 0.00 | 92 | 1014.3 |
| 20260906023224 | 62 | 340 | 0.0 | 0.0 | 0.00 | 0.00 | 0.00 | 92 | 1014.3 |
| 20260906023124 | 62 | 340 | 0.0 | 0.0 | 0.00 | 0.00 | 0.00 | 92 | 1014.4 |
| 20260906023051 | 62 | 340 | 0.0 | 0.0 | 0.00 | 0.00 | 0.00 | 92 | 1014.3 |
| 20260906022954 | 62 | 340 | 0.0 | 0.0 | 0.00 | 0.00 | 0.00 | 92 | 1014.3 |
| 20260906022916 | 62 | 340 | 0.0 | 0.0 | 0.00 | 0.00 | 0.00 | 92 | 1014.3 |
| 20260906022745 | 62 | 340 | 0.0 | 0.0 | 0.00 | 0.00 | 0.00 | 92 | 1014.3 |
| 20260906022641 | 62 | 340 | 0.0 | 0.0 | 0.00 | 0.00 | 0.00 | 92 | 1014.3 |
| 20260906022525 | 62 | 340 | 0.0 | 0.0 | 0.00 | 0.00 | 0.00 | 92 | 1014.3 |
| 20260906022446 | 62 | 340 | 0.0 | 0.0 | 0.00 | 0.00 | 0.00 | 92 | 1014.3 |
| 20260906022328 | 62 | 340 | 0.0 | 0.0 | 0.00 | 0.00 | 0.00 | 92 | 1014.3 |
| 20260906022209 | 62 | 340 | 0.0 | 0.0 | 0.00 | 0.00 | 0.00 | 92 | 1014.3 |
| 20260906022131 | 62 | 340 | 0.0 | 0.0 | 0.00 | 0.00 | 0.00 | 92 | 1014.3 |
| 20260906022002 | 62 | 340 | 0.0 | 0.0 | 0.00 | 0.00 | 0.00 | 92 | 1014.3 |
| 20260906021921 | 62 | 340 | 0.0 | 0.0 | 0.00 | 0.00 | 0.00 | 92 | 1014.3 |
| 20260906021728 | 62 | 340 | 0.0 | 0.0 | 0.00 | 0.00 | 0.00 | 92 | 1014.3 |
| 20260906021643 | 62 | 340 | 0.0 | 0.0 | 0.00 | 0.00 | 0.00 | 92 | 1014.3 |
| 20260906021513 | 62 | 340 | 0.0 | 0.0 | 0.00 | 0.00 | 0.00 | 92 | 1014.3 |
| 20260906021433 | 62 | 340 | 0.0 | 0.0 | 0.00 | 0.00 | 0.00 | 92 | 1014.3 |
| 20260906021304 | 62 | 340 | 0.0 | 0.0 | 0.00 | 0.00 | 0.00 | 92 | 1014.3 |
| 20260906021218 | 62 | 340 | 0.0 | 0.0 | 0.00 | 0.00 | 0.00 | 92 | 1014.3 |
| 20260906021040 | 62 | 340 | 0.0 | 0.0 | 0.00 | 0.00 | 0.00 | 92 | 1014.3 |
| 20260906020933 | 62 | 340 | 0.0 | 0.0 | 0.00 | 0.00 | 0.00 | 92 | 1014.3 |
| 20260906020856 | 62 | 340 | 0.0 | 0.0 | 0.00 | 0.00 | 0.00 | 92 | 1014.3 |
| 20260906020805 | 62 | 340 | 0.0 | 0.0 | 0.00 | 0.00 | 0.00 | 92 | 1014.3 |
| 20260906020726 | 62 | 340 | 0.0 | 0.0 | 0.00 | 0.00 | 0.00 | 92 | 1014.3 |
| 20260906020530 | 62 | 340 | 0.0 | 0.0 | 0.00 | 0.00 | 0.00 | 92 | 1014.3 |
| 20260906020431 | 62 | 340 | 0.0 | 0.0 | 0.00 | 0.00 | 0.00 | 92 | 1014.3 |
| 20260906020335 | 62 | 340 | 0.0 | 0.0 | 0.00 | 0.00 | 0.00 | 92 | 1014.4 |
| 20260906020236 | 62 | 340 | 0.0 | 0.0 | 0.00 | 0.00 | 0.00 | 92 | 1014.4 |
| 20260906020106 | 62 | 340 | 0.0 | 0.0 | 0.00 | 0.00 | 0.00 | 92 | 1014.4 |
| 20260906015940 | 62 | 340 | 0.0 | 0.0 | 0.00 | 0.00 | 0.00 | 92 | 1014.4 |
| 20260906015823 | 62 | 340 | 0.0 | 1.0 | 0.00 | 0.00 | 0.00 | 92 | 1014.4 |
| 20260906015750 | 62 | 340 | 0.0 | 1.0 | 0.00 | 0.00 | 0.00 | 92 | 1014.4 |
| 20260906015539 | 62 | 340 | 0.0 | 1.0 | 0.00 | 0.00 | 0.00 | 92 | 1014.4 |
| 20260906015434 | 62 | 340 | 0.0 | 1.0 | 0.00 | 0.00 | 0.00 | 92 | 1014.4 |
| 20260906015357 | 62 | 340 | 0.0 | 1.0 | 0.00 | 0.00 | 0.00 | 92 | 1014.4 |
| 20260906015259 | 62 | 340 | 0.0 | 1.0 | 0.00 | 0.00 | 0.00 | 92 | 1014.4 |
| 20260906015141 | 63 | 340 | 0.0 | 1.0 | 0.00 | 0.00 | 0.00 | 92 | 1014.4 |
| 20260906015043 | 62 | 340 | 0.0 | 1.0 | 0.00 | 0.00 | 0.00 | 92 | 1014.4 |
| 20260906015005 | 62 | 340 | 0.0 | 1.0 | 0.00 | 0.00 | 0.00 | 92 | 1014.4 |
| 20260906014835 | 62 | 338 | 0.0 | 1.0 | 0.00 | 0.00 | 0.00 | 92 | 1014.3 |
| 20260906014728 | 62 | 338 | 0.0 | 1.0 | 0.00 | 0.00 | 0.00 | 92 | 1014.3 |
| 20260906014542 | 63 | 338 | 0.0 | 1.0 | 0.00 | 0.00 | 0.00 | 92 | 1014.3 |
| 20260906014456 | 63 | 338 | 0.0 | 1.0 | 0.00 | 0.00 | 0.00 | 92 | 1014.3 |
| 20260906014251 | 63 | 338 | 0.0 | 2.0 | 0.00 | 0.00 | 0.00 | 91 | 1014.4 |
| 20260906014153 | 63 | 338 | 1.0 | 2.0 | 0.00 | 0.00 | 0.00 | 91 | 1014.4 |
| 20260906014036 | 63 | 338 | 1.0 | 2.0 | 0.00 | 0.00 | 0.00 | 91 | 1014.4 |
| 20260906013959 | 63 | 338 | 0.0 | 2.0 | 0.00 | 0.00 | 0.00 | 91 | 1014.4 |
| 20260906013840 | 63 | 338 | 0.0 | 2.0 | 0.00 | 0.00 | 0.00 | 91 | 1014.4 |
| 20260906013801 | 63 | 338 | 0.0 | 2.0 | 0.00 | 0.00 | 0.00 | 91 | 1014.4 |
| 20260906013625 | 63 | 338 | 1.0 | 2.0 | 0.00 | 0.00 | 0.00 | 92 | 1014.4 |
| 20260906013546 | 63 | 338 | 0.0 | 2.0 | 0.00 | 0.00 | 0.00 | 92 | 1014.4 |
| 20260906013359 | 63 | 338 | 0.0 | 1.0 | 0.00 | 0.00 | 0.00 | 92 | 1014.4 |
| 20260906013321 | 63 | 338 | 0.0 | 1.0 | 0.00 | 0.00 | 0.00 | 92 | 1014.4 |
| 20260906013126 | 63 | 338 | 0.0 | 1.0 | 0.00 | 0.00 | 0.00 | 92 | 1014.4 |
| 20260906013047 | 63 | 333 | 0.0 | 2.0 | 0.00 | 0.00 | 0.00 | 92 | 1014.5 |
| 20260906012952 | 63 | 333 | 0.0 | 3.0 | 0.00 | 0.00 | 0.00 | 92 | 1014.4 |
| 20260906012914 | 63 | 333 | 0.0 | 3.0 | 0.00 | 0.00 | 0.00 | 92 | 1014.5 |
| 20260906012745 | 63 | 333 | 0.0 | 3.0 | 0.00 | 0.00 | 0.00 | 92 | 1014.5 |
| 20260906012642 | 63 | 333 | 0.0 | 3.0 | 0.00 | 0.00 | 0.00 | 92 | 1014.5 |
| 20260906012526 | 62 | 333 | 0.0 | 3.0 | 0.00 | 0.00 | 0.00 | 92 | 1014.4 |
| 20260906012434 | 63 | 329 | 0.0 | 3.0 | 0.00 | 0.00 | 0.00 | 92 | 1014.4 |
| 20260906012354 | 62 | 329 | 0.0 | 3.0 | 0.00 | 0.00 | 0.00 | 92 | 1014.4 |
| 20260906012258 | 63 | 329 | 2.0 | 3.0 | 0.00 | 0.00 | 0.00 | 92 | 1014.4 |
| 20260906012159 | 63 | 329 | 2.0 | 3.0 | 0.00 | 0.00 | 0.00 | 92 | 1014.4 |
| 20260906012028 | 63 | 329 | 3.0 | 3.0 | 0.00 | 0.00 | 0.00 | 92 | 1014.4 |
| 20260906011912 | 63 | 327 | 3.0 | 4.0 | 0.00 | 0.00 | 0.00 | 92 | 1014.4 |
| 20260906011833 | 63 | 327 | 2.0 | 4.0 | 0.00 | 0.00 | 0.00 | 92 | 1014.4 |
| 20260906011637 | 63 | 326 | 2.0 | 4.0 | 0.00 | 0.00 | 0.00 | 92 | 1014.3 |
| 20260906011540 | 63 | 326 | 2.0 | 4.0 | 0.00 | 0.00 | 0.00 | 92 | 1014.4 |
| 20260906011444 | 63 | 326 | 2.0 | 4.0 | 0.00 | 0.00 | 0.00 | 92 | 1014.4 |
| 20260906011404 | 63 | 326 | 2.0 | 4.0 | 0.00 | 0.00 | 0.00 | 92 | 1014.3 |
| 20260906011228 | 63 | 340 | 3.0 | 4.0 | 0.00 | 0.00 | 0.00 | 91 | 1014.3 |
| 20260906011122 | 63 | 340 | 3.0 | 4.0 | 0.00 | 0.00 | 0.00 | 91 | 1014.3 |
| 20260906010952 | 63 | 340 | 2.0 | 3.0 | 0.00 | 0.00 | 0.00 | 91 | 1014.3 |
| 20260906010915 | 63 | 340 | 2.0 | 3.0 | 0.00 | 0.00 | 0.00 | 91 | 1014.3 |
| 20260906010746 | 63 | 340 | 2.0 | 3.0 | 0.00 | 0.00 | 0.00 | 91 | 1014.3 |
| 20260906010702 | 63 | 317 | 2.0 | 3.0 | 0.00 | 0.00 | 0.00 | 91 | 1014.3 |
| 20260906010511 | 63 | 317 | 2.0 | 3.0 | 0.00 | 0.00 | 0.00 | 91 | 1014.4 |
| 20260906010433 | 63 | 315 | 2.0 | 3.0 | 0.00 | 0.00 | 0.00 | 91 | 1014.4 |
| 20260906010235 | 63 | 315 | 2.0 | 3.0 | 0.00 | 0.00 | 0.00 | 91 | 1014.4 |
| 20260906010158 | 63 | 315 | 2.0 | 4.0 | 0.00 | 0.00 | 0.00 | 91 | 1014.3 |
| 20260906010040 | 63 | 315 | 2.0 | 4.0 | 0.00 | 0.00 | 0.00 | 91 | 1014.4 |
| 20260906010005 | 63 | 315 | 2.0 | 4.0 | 0.00 | 0.00 | 0.00 | 91 | 1014.3 |
| 20260906005808 | 63 | 315 | 2.0 | 4.0 | 0.00 | 0.00 | 0.00 | 91 | 1014.3 |
| 20260906005729 | 63 | 315 | 2.0 | 4.0 | 0.00 | 0.00 | 0.00 | 91 | 1014.3 |
| 20260906005559 | 63 | 313 | 2.0 | 4.0 | 0.00 | 0.00 | 0.00 | 91 | 1014.3 |
| 20260906005522 | 63 | 312 | 2.0 | 4.0 | 0.00 | 0.00 | 0.00 | 91 | 1014.3 |
| 20260906005307 | 63 | 321 | 3.0 | 4.0 | 0.00 | 0.00 | 0.00 | 91 | 1014.3 |
| 20260906005229 | 63 | 321 | 2.0 | 4.0 | 0.00 | 0.00 | 0.00 | 91 | 1014.3 |
| 20260906005031 | 63 | 325 | 2.0 | 3.0 | 0.00 | 0.00 | 0.00 | 91 | 1014.3 |
| 20260906004954 | 63 | 337 | 2.0 | 3.0 | 0.00 | 0.00 | 0.00 | 91 | 1014.2 |
| 20260906004858 | 63 | 345 | 2.0 | 3.0 | 0.00 | 0.00 | 0.00 | 91 | 1014.2 |
| 20260906004819 | 63 | 345 | 2.0 | 4.0 | 0.00 | 0.00 | 0.00 | 91 | 1014.2 |
| 20260906004628 | 63 | 345 | 2.0 | 4.0 | 0.00 | 0.00 | 0.00 | 91 | 1014.2 |
| 20260906004531 | 63 | 345 | 2.0 | 4.0 | 0.00 | 0.00 | 0.00 | 91 | 1014.2 |
| 20260906004434 | 63 | 345 | 2.0 | 4.0 | 0.00 | 0.00 | 0.00 | 91 | 1014.2 |
| 20260906004337 | 63 | 340 | 2.0 | 4.0 | 0.00 | 0.00 | 0.00 | 91 | 1014.2 |
| 20260906004259 | 63 | 340 | 2.0 | 4.0 | 0.00 | 0.00 | 0.00 | 91 | 1014.2 |
| 20260906004124 | 63 | 333 | 3.0 | 4.0 | 0.00 | 0.00 | 0.00 | 91 | 1014.2 |
| 20260906004037 | 63 | 343 | 3.0 | 4.0 | 0.00 | 0.00 | 0.00 | 91 | 1014.2 |
| 20260906003944 | 63 | 343 | 3.0 | 4.0 | 0.00 | 0.00 | 0.00 | 91 | 1014.2 |
| 20260906003828 | 63 | 344 | 2.0 | 3.0 | 0.00 | 0.00 | 0.00 | 91 | 1014.2 |
| 20260906003723 | 63 | 342 | 1.0 | 3.0 | 0.00 | 0.00 | 0.00 | 91 | 1014.2 |
| 20260906003626 | 63 | 342 | 1.0 | 3.0 | 0.00 | 0.00 | 0.00 | 91 | 1014.2 |
| 20260906003551 | 63 | 331 | 1.0 | 3.0 | 0.00 | 0.00 | 0.00 | 91 | 1014.2 |
| 20260906003433 | 63 | 346 | 1.0 | 3.0 | 0.00 | 0.00 | 0.00 | 91 | 1014.2 |
| 20260906003337 | 63 | 345 | 0.0 | 4.0 | 0.00 | 0.00 | 0.00 | 91 | 1014.1 |
| 20260906003300 | 63 | 345 | 0.0 | 4.0 | 0.00 | 0.00 | 0.00 | 91 | 1014.2 |
| 20260906003127 | 63 | 345 | 1.0 | 4.0 | 0.00 | 0.00 | 0.00 | 91 | 1014.2 |
| 20260906003048 | 63 | 341 | 1.0 | 4.0 | 0.00 | 0.00 | 0.00 | 91 | 1014.1 |
| 20260906002917 | 63 | 341 | 1.0 | 4.0 | 0.00 | 0.00 | 0.00 | 91 | 1014.2 |
| 20260906002832 | 63 | 341 | 1.0 | 4.0 | 0.00 | 0.00 | 0.00 | 91 | 1014.2 |
| 20260906002704 | 63 | 341 | 2.0 | 4.0 | 0.00 | 0.00 | 0.00 | 91 | 1014.1 |
| 20260906002624 | 63 | 341 | 2.0 | 4.0 | 0.00 | 0.00 | 0.00 | 91 | 1014.1 |
| 20260906002434 | 63 | 333 | 2.0 | 4.0 | 0.00 | 0.00 | 0.00 | 91 | 1014.2 |
| 20260906002328 | 63 | 338 | 3.0 | 4.0 | 0.00 | 0.00 | 0.00 | 91 | 1014.2 |
| 20260906002250 | 63 | 338 | 3.0 | 4.0 | 0.00 | 0.00 | 0.00 | 91 | 1014.2 |
| 20260906002154 | 63 | 337 | 3.0 | 4.0 | 0.00 | 0.00 | 0.00 | 91 | 1014.1 |
| 20260906002035 | 63 | 338 | 3.0 | 4.0 | 0.00 | 0.00 | 0.00 | 91 | 1014.1 |
| 20260906001923 | 63 | 338 | 2.0 | 3.0 | 0.00 | 0.00 | 0.00 | 91 | 1014.1 |
| 20260906001846 | 63 | 347 | 2.0 | 3.0 | 0.00 | 0.00 | 0.00 | 91 | 1014.1 |
| 20260906001537 | 63 | 336 | 2.0 | 3.0 | 0.00 | 0.00 | 0.00 | 91 | 1014.1 |
| 20260906001433 | 63 | 336 | 2.0 | 3.0 | 0.00 | 0.00 | 0.00 | 91 | 1014.1 |
| 20260906001333 | 63 | 336 | 2.0 | 3.0 | 0.00 | 0.00 | 0.00 | 91 | 1014.1 |
| 20260906001247 | 63 | 336 | 2.0 | 3.0 | 0.00 | 0.00 | 0.00 | 91 | 1014.1 |
| 20260906001117 | 64 | 336 | 2.0 | 3.0 | 0.00 | 0.00 | 0.00 | 91 | 1014.0 |
| 20260906001038 | 64 | 336 | 2.0 | 3.0 | 0.00 | 0.00 | 0.00 | 91 | 1014.0 |
| 20260906000902 | 64 | 342 | 2.0 | 4.0 | 0.00 | 0.00 | 0.00 | 91 | 1014.0 |
| 20260906000828 | 64 | 342 | 2.0 | 4.0 | 0.00 | 0.00 | 0.00 | 91 | 1014.0 |
| 20260906000658 | 64 | 318 | 2.0 | 4.0 | 0.00 | 0.00 | 0.00 | 91 | 1013.9 |
| 20260906000620 | 64 | 344 | 2.0 | 4.0 | 0.00 | 0.00 | 0.00 | 91 | 1013.8 |
| 20260906000425 | 64 | 355 | 1.0 | 4.0 | 0.00 | 0.00 | 0.00 | 90 | 1013.8 |
| 20260906000348 | 64 | 355 | 1.0 | 4.0 | 0.00 | 0.00 | 0.00 | 90 | 1013.8 |
| 20260906000230 | 64 | 355 | 2.0 | 5.0 | 0.00 | 0.00 | 0.00 | 90 | 1013.8 |
| 20260906000152 | 64 | 347 | 2.0 | 5.0 | 0.00 | 0.00 | 0.00 | 90 | 1013.8 |
| 20260906000035 | 64 | 355 | 2.0 | 5.0 | 0.00 | 0.00 | 0.00 | 90 | 1013.8 |
| 20260905235829 | 64 | 351 | 1.0 | 5.0 | 0.00 | 0.00 | 0.00 | 90 | 1013.8 |
| 20260905235754 | 64 | 355 | 2.0 | 5.0 | 0.00 | 0.00 | 0.00 | 90 | 1013.8 |
| 20260905235625 | 64 | 336 | 3.0 | 5.0 | 0.00 | 0.00 | 0.00 | 90 | 1013.8 |
| 20260905235518 | 64 | 340 | 3.0 | 5.0 | 0.00 | 0.00 | 0.00 | 90 | 1013.8 |
| 20260905235348 | 64 | 344 | 1.0 | 4.0 | 0.00 | 0.00 | 0.00 | 90 | 1013.8 |
| 20260905235248 | 64 | 344 | 1.0 | 4.0 | 0.00 | 0.00 | 0.00 | 90 | 1013.8 |
| 20260905235210 | 64 | 344 | 1.0 | 5.0 | 0.00 | 0.00 | 0.00 | 90 | 1013.8 |
| 20260905235113 | 64 | 344 | 2.0 | 5.0 | 0.00 | 0.00 | 0.00 | 90 | 1013.8 |
| 20260905235036 | 64 | 344 | 2.0 | 5.0 | 0.00 | 0.00 | 0.00 | 90 | 1013.8 |
| 20260905234905 | 64 | 340 | 2.0 | 5.0 | 0.00 | 0.00 | 0.00 | 90 | 1013.8 |
| 20260905234739 | 64 | 19 | 2.0 | 5.0 | 0.00 | 0.00 | 0.00 | 90 | 1013.7 |
| 20260905234623 | 64 | 349 | 2.0 | 5.0 | 0.00 | 0.00 | 0.00 | 90 | 1013.7 |
| 20260905234550 | 64 | 331 | 3.0 | 5.0 | 0.00 | 0.00 | 0.00 | 90 | 1013.8 |